[[{"header":{"parameterUnit":"m.s-1","parameterCategory":1,"la1":30.6,"la2":29.2853,"lo1":-89.7004,"lo2":-87.6739,"dy":0.0162,"dx":0.0183,"nx":112,"ny":82,"refTime":"2025-11-05T12:00:00:Z","depth":0,"parameterNumber":2,"parameterNumberName":"U-component_of_WINDS"},"data":[0.0,0.0,0.0,0.0,0.0,0.0,0.0,0.0,0.0,0.0,0.0,0.0,0.0,0.0,0.0,0.0,0.0,0.0,0.0,0.0,0.0,0.0,0.0,0.0,0.0,0.0,0.0,0.0,0.0,0.0,0.0,0.0,0.0,0.0,0.0,0.0,0.0,0.0,0.0,0.0,0.0,0.0,0.0,0.0,0.0,0.0,0.0,0.0,0.0,0.0,0.0,0.0,0.0,0.0,0.0,0.0,0.0,0.0,0.0,0.0,0.0,0.0,0.0,0.0,0.0,0.0,0.0,0.0,0.0,0.0,0.0,0.0,0.0,0.0,0.0,0.0,0.0,0.0,0.0,0.0,0.0,0.0,0.0,0.0,0.0,0.0,0.0,0.0,0.0,0.0,0.0,8.8222,9.5777,10.0,9.9297,9.7187,9.1327,8.0615,0.0,0.0,0.0,0.0,0.0,0.0,0.0,0.0,0.0,0.0,0.0,0.0,0.0,0.0,0.0,0.0,0.0,0.0,0.0,0.0,0.0,0.0,0.0,0.0,0.0,0.0,0.0,0.0,0.0,0.0,0.0,0.0,0.0,0.0,0.0,0.0,0.0,0.0,0.0,0.0,0.0,0.0,0.0,0.0,0.0,0.0,0.0,0.0,0.0,0.0,0.0,0.0,0.0,0.0,0.0,0.0,0.0,0.0,0.0,0.0,0.0,0.0,0.0,0.0,0.0,0.0,0.0,0.0,0.0,0.0,0.0,0.0,0.0,0.0,0.0,0.0,0.0,0.0,0.0,0.0,0.0,0.0,0.0,0.0,0.0,0.0,0.0,0.0,0.0,0.0,0.0,0.0,0.0,0.0,0.0,0.0,0.0,0.0,0.0,0.0,0.0,0.0,0.0,0.0,8.2991,9.5836,9.906,10.0234,10.0078,9.5859,8.9921,8.2337,0.0,0.0,0.0,0.0,0.0,0.0,0.0,0.0,0.0,0.0,0.0,0.0,0.0,0.0,0.0,0.0,0.0,0.0,0.0,0.0,0.0,0.0,0.0,0.0,0.0,0.0,0.0,0.0,0.0,0.0,0.0,0.0,0.0,0.0,0.0,0.0,0.0,0.0,0.0,0.0,0.0,0.0,0.0,0.0,0.0,0.0,0.0,0.0,0.0,0.0,0.0,0.0,0.0,0.0,0.0,0.0,0.0,0.0,0.0,0.0,0.0,0.0,0.0,0.0,0.0,0.0,0.0,0.0,0.0,0.0,0.0,0.0,0.0,0.0,0.0,0.0,0.0,0.0,0.0,0.0,0.0,0.0,0.0,0.0,0.0,0.0,0.0,0.0,0.0,0.0,0.0,0.0,0.0,0.0,0.0,0.0,0.0,0.0,0.0,0.0,0.0,0.0,0.0,8.1847,8.8655,9.9296,10.0781,10.0625,9.9687,9.5703,8.9765,8.1404,7.5607,0.0,0.0,0.0,0.0,0.0,0.0,0.0,0.0,0.0,0.0,0.0,0.0,0.0,0.0,0.0,0.0,0.0,0.0,0.0,0.0,0.0,0.0,0.0,0.0,0.0,0.0,0.0,0.0,0.0,0.0,0.0,0.0,0.0,0.0,0.0,0.0,0.0,0.0,0.0,0.0,0.0,0.0,0.0,0.0,0.0,0.0,0.0,0.0,0.0,0.0,0.0,0.0,0.0,0.0,0.0,0.0,0.0,0.0,0.0,0.0,0.0,0.0,0.0,0.0,0.0,0.0,0.0,0.0,0.0,0.0,0.0,0.0,0.0,0.0,0.0,0.0,0.0,0.0,0.0,0.0,0.0,0.0,0.0,0.0,0.0,0.0,0.0,0.0,0.0,0.0,0.0,0.0,0.0,0.0,0.0,0.0,0.0,0.0,0.0,0.0,0.0,0.0,9.0385,9.4219,10.1172,10.1719,10.0937,9.914,9.4765,8.8515,8.0234,7.2882,0.0,0.0,0.0,0.0,0.0,0.0,0.0,0.0,0.0,0.0,0.0,0.0,0.0,0.0,0.0,0.0,0.0,0.0,0.0,0.0,0.0,0.0,0.0,0.0,0.0,0.0,0.0,0.0,0.0,0.0,0.0,0.0,0.0,0.0,0.0,0.0,0.0,0.0,0.0,0.0,0.0,0.0,0.0,0.0,0.0,0.0,0.0,0.0,0.0,0.0,0.0,0.0,0.0,0.0,0.0,0.0,0.0,0.0,0.0,0.0,0.0,0.0,0.0,0.0,0.0,0.0,0.0,0.0,0.0,0.0,0.0,0.0,0.0,0.0,0.0,0.0,0.0,0.0,0.0,0.0,0.0,0.0,0.0,0.0,0.0,0.0,0.0,0.0,0.0,0.0,0.0,0.0,0.0,0.0,0.0,0.0,0.0,0.0,0.0,0.0,0.0,0.0,9.1492,9.7812,10.2265,10.2109,10.0937,9.914,9.1484,8.4765,8.0,6.9531,0.0,0.0,0.0,0.0,0.0,0.0,0.0,0.0,0.0,0.0,0.0,0.0,0.0,0.0,0.0,0.0,0.0,0.0,0.0,0.0,0.0,0.0,0.0,0.0,0.0,0.0,0.0,0.0,0.0,0.0,0.0,0.0,0.0,0.0,0.0,0.0,0.0,0.0,0.0,0.0,0.0,0.0,0.0,0.0,0.0,0.0,0.0,0.0,0.0,0.0,0.0,0.0,0.0,0.0,0.0,0.0,0.0,0.0,0.0,0.0,0.0,0.0,0.0,0.0,0.0,0.0,0.0,0.0,0.0,0.0,0.0,0.0,0.0,0.0,0.0,0.0,0.0,0.0,0.0,0.0,0.0,0.0,0.0,0.0,0.0,0.0,0.0,0.0,0.0,0.0,0.0,0.0,0.0,0.0,0.0,0.0,0.0,0.0,0.0,0.0,0.0,0.0,9.1083,9.6953,0.0,10.1562,10.0078,9.8359,9.2812,8.5937,7.7812,0.0,0.0,0.0,0.0,0.0,0.0,0.0,0.0,0.0,0.0,0.0,0.0,0.0,0.0,0.0,0.0,0.0,0.0,0.0,0.0,0.0,0.0,0.0,0.0,0.0,0.0,0.0,0.0,0.0,0.0,0.0,0.0,0.0,0.0,0.0,0.0,0.0,0.0,0.0,0.0,0.0,0.0,0.0,0.0,0.0,0.0,0.0,0.0,0.0,0.0,0.0,0.0,0.0,0.0,0.0,0.0,0.0,0.0,0.0,0.0,0.0,0.0,0.0,0.0,0.0,0.0,0.0,0.0,0.0,0.0,0.0,0.0,0.0,0.0,0.0,0.0,0.0,0.0,0.0,0.0,0.0,0.0,0.0,0.0,0.0,0.0,0.0,0.0,0.0,0.0,0.0,0.0,0.0,0.0,0.0,0.0,0.0,0.0,0.0,0.0,0.0,0.0,8.4998,9.164,9.7812,0.0,10.2969,10.1562,10.0625,9.4844,8.7109,7.7344,0.0,0.0,0.0,0.0,0.0,0.0,0.0,0.0,0.0,0.0,0.0,0.0,0.0,0.0,0.0,0.0,0.0,0.0,0.0,0.0,0.0,0.0,0.0,0.0,0.0,0.0,0.0,0.0,0.0,0.0,0.0,0.0,0.0,0.0,0.0,0.0,0.0,0.0,0.0,0.0,0.0,0.0,0.0,0.0,0.0,0.0,0.0,0.0,0.0,0.0,0.0,0.0,0.0,0.0,0.0,0.0,0.0,0.0,0.0,0.0,0.0,0.0,0.0,0.0,0.0,0.0,0.0,0.0,0.0,0.0,0.0,0.0,0.0,0.0,0.0,0.0,0.0,0.0,0.0,0.0,0.0,0.0,0.0,0.0,0.0,0.0,0.0,0.0,0.0,0.0,0.0,0.0,0.0,0.0,0.0,0.0,0.0,0.0,0.0,0.0,0.0,0.0,8.5312,9.3828,10.1406,10.7422,10.6562,10.5937,10.6562,9.7265,8.7656,0.0,0.0,0.0,0.0,0.0,0.0,0.0,0.0,0.0,0.0,0.0,0.0,0.0,0.0,0.0,0.0,0.0,0.0,0.0,0.0,0.0,0.0,0.0,0.0,0.0,0.0,0.0,0.0,0.0,0.0,0.0,0.0,0.0,0.0,0.0,0.0,0.0,0.0,0.0,0.0,0.0,0.0,0.0,0.0,0.0,0.0,0.0,0.0,0.0,0.0,0.0,0.0,0.0,0.0,0.0,0.0,0.0,0.0,0.0,0.0,0.0,0.0,0.0,0.0,0.0,0.0,0.0,0.0,0.0,0.0,0.0,0.0,0.0,0.0,0.0,0.0,0.0,0.0,0.0,0.0,0.0,0.0,0.0,0.0,0.0,0.0,0.0,0.0,0.0,0.0,0.0,0.0,0.0,0.0,0.0,0.0,0.0,0.0,0.0,0.0,0.0,0.0,0.0,9.0625,10.1797,10.9687,11.1484,11.0703,10.8906,10.6093,9.914,9.0,7.8281,0.0,0.0,0.0,0.0,0.0,0.0,0.0,0.0,0.0,0.0,0.0,0.0,0.0,0.0,0.0,0.0,0.0,0.0,0.0,0.0,0.0,0.0,0.0,0.0,0.0,0.0,0.0,0.0,0.0,0.0,0.0,0.0,0.0,0.0,0.0,0.0,0.0,0.0,0.0,0.0,0.0,0.0,0.0,0.0,0.0,0.0,0.0,0.0,0.0,0.0,0.0,0.0,0.0,0.0,0.0,0.0,0.0,0.0,0.0,0.0,0.0,0.0,0.0,0.0,0.0,0.0,0.0,0.0,0.0,0.0,0.0,0.0,0.0,0.0,0.0,0.0,0.0,0.0,0.0,0.0,0.0,0.0,0.0,0.0,0.0,0.0,0.0,0.0,0.0,0.0,0.0,0.0,0.0,0.0,0.0,0.0,0.0,0.0,0.0,0.0,0.0,0.0,9.2812,10.4297,11.2578,11.5,11.3515,11.1484,10.9297,10.3594,9.4531,8.164,0.0,0.0,0.0,0.0,0.0,0.0,0.0,0.0,0.0,0.0,0.0,0.0,0.0,0.0,0.0,0.0,0.0,0.0,0.0,0.0,0.0,0.0,0.0,0.0,0.0,0.0,0.0,0.0,0.0,0.0,0.0,0.0,0.0,0.0,0.0,0.0,0.0,0.0,0.0,0.0,0.0,0.0,0.0,0.0,0.0,0.0,0.0,0.0,0.0,0.0,0.0,0.0,0.0,0.0,0.0,0.0,0.0,0.0,0.0,0.0,0.0,0.0,0.0,0.0,0.0,0.0,0.0,0.0,0.0,0.0,0.0,0.0,0.0,0.0,0.0,0.0,0.0,0.0,0.0,0.0,0.0,0.0,0.0,0.0,0.0,0.0,0.0,0.0,0.0,0.0,0.0,0.0,0.0,0.0,0.0,0.0,0.0,0.0,0.0,0.0,0.0,0.0,9.3359,10.3906,11.2734,11.8203,11.5781,11.3984,11.4297,10.8906,10.0078,8.7344,0.0,0.0,0.0,0.0,0.0,0.0,0.0,0.0,0.0,0.0,0.0,0.0,0.0,0.0,0.0,0.0,0.0,0.0,0.0,0.0,0.0,0.0,0.0,0.0,0.0,0.0,0.0,0.0,0.0,0.0,0.0,0.0,0.0,0.0,0.0,0.0,0.0,0.0,0.0,0.0,0.0,0.0,0.0,0.0,0.0,0.0,0.0,0.0,0.0,0.0,0.0,0.0,0.0,0.0,0.0,0.0,0.0,0.0,0.0,0.0,7.5625,0.0,0.0,0.0,0.0,0.0,0.0,0.0,0.0,0.0,0.0,0.0,0.0,0.0,0.0,0.0,0.0,0.0,0.0,0.0,0.0,0.0,0.0,0.0,0.0,0.0,0.0,0.0,0.0,0.0,0.0,0.0,0.0,0.0,0.0,0.0,0.0,0.0,0.0,0.0,0.0,0.0,9.789,11.1484,12.1015,12.2265,11.9922,11.6875,11.3672,10.8593,10.0781,8.9844,8.1562,0.0,0.0,0.0,0.0,0.0,0.0,0.0,0.0,0.0,0.0,0.0,0.0,0.0,0.0,0.0,0.0,0.0,0.0,0.0,0.0,0.0,0.0,0.0,0.0,0.0,0.0,0.0,0.0,0.0,0.0,0.0,0.0,0.0,0.0,0.0,0.0,0.0,0.0,0.0,0.0,0.0,0.0,0.0,0.0,0.0,0.0,0.0,0.0,0.0,0.0,0.0,0.0,0.0,0.0,0.0,0.0,0.0,0.0,0.0,0.0,7.8359,0.0,0.0,0.0,0.0,0.0,0.0,0.0,0.0,0.0,0.0,0.0,0.0,0.0,0.0,0.0,0.0,0.0,0.0,0.0,0.0,0.0,0.0,0.0,0.0,0.0,0.0,0.0,0.0,0.0,0.0,0.0,0.0,0.0,0.0,0.0,0.0,0.0,0.0,0.0,0.0,9.9375,11.2812,12.1875,12.2812,11.9765,11.6718,11.3984,10.9375,10.3281,9.5469,8.7656,0.0,0.0,0.0,0.0,0.0,0.0,0.0,0.0,0.0,0.0,0.0,0.0,0.0,0.0,0.0,0.0,0.0,0.0,0.0,0.0,0.0,0.0,0.0,0.0,0.0,0.0,0.0,0.0,0.0,0.0,0.0,0.0,0.0,0.0,0.0,0.0,0.0,0.0,0.0,0.0,0.0,0.0,0.0,0.0,0.0,0.0,0.0,0.0,0.0,0.0,0.0,0.0,0.0,9.4765,9.7812,10.2265,10.4531,10.4687,10.3203,9.7109,9.1015,8.5078,0.0,0.0,0.0,0.0,0.0,0.0,0.0,0.0,0.0,0.0,0.0,0.0,0.0,0.0,0.0,0.0,0.0,0.0,0.0,0.0,0.0,0.0,0.0,0.0,0.0,9.2265,9.2656,0.0,0.0,0.0,0.0,0.0,0.0,0.0,0.0,0.0,0.0,0.0,0.0,10.0703,11.2265,12.039,12.2031,11.8437,11.539,11.4609,11.0781,10.6406,10.1484,9.4609,8.7656,0.0,0.0,0.0,0.0,0.0,0.0,0.0,0.0,0.0,0.0,0.0,0.0,0.0,0.0,0.0,0.0,0.0,0.0,0.0,0.0,0.0,0.0,0.0,0.0,0.0,0.0,0.0,0.0,0.0,0.0,0.0,0.0,6.6953,6.3672,0.0,0.0,0.0,0.0,0.0,0.0,0.0,0.0,0.0,0.0,0.0,0.0,0.0,8.6875,9.0859,10.0,10.5312,10.6875,11.7265,12.1484,12.0234,12.4218,12.4297,12.1406,12.1875,0.0,9.2734,9.5703,0.0,0.0,0.0,0.0,0.0,0.0,0.0,0.0,0.0,0.0,0.0,0.0,0.0,0.0,0.0,0.0,0.0,0.0,0.0,0.0,0.0,0.0,10.2969,10.1875,10.3437,10.3672,0.0,8.7422,7.7265,7.414,7.0859,0.0,0.0,0.0,0.0,0.0,0.0,0.0,10.5625,11.5,12.1093,12.2109,11.8437,11.539,11.4609,11.1875,10.8672,10.5,10.1015,9.6015,8.9844,8.3203,0.0,0.0,0.0,0.0,0.0,0.0,0.0,0.0,0.0,0.0,0.0,0.0,0.0,0.0,0.0,0.0,0.0,0.0,0.0,0.0,0.0,0.0,0.0,0.0,0.0,0.0,0.0,0.0,0.0,6.5312,7.1484,6.5703,6.9375,6.875,0.0,0.0,0.0,0.0,0.0,0.0,0.0,0.0,0.0,9.6172,9.8125,10.2109,10.8437,11.4375,11.8593,12.1015,12.7187,13.039,13.0703,13.2109,13.1406,12.9062,12.9375,12.2265,11.0312,10.6797,9.8515,8.7812,0.0,0.0,0.0,0.0,8.2187,8.2812,8.7656,8.8437,0.0,0.0,0.0,0.0,0.0,0.0,0.0,0.0,0.0,0.0,0.0,0.0,0.0,10.7265,10.9062,10.9765,10.7812,10.0937,9.2578,0.0,8.125,7.7265,6.7578,0.0,0.0,0.0,0.0,10.0312,10.7109,11.5078,12.0312,12.0703,11.8203,11.6093,11.5234,11.3281,11.1015,10.8515,10.6015,10.2578,9.8047,9.164,8.4687,0.0,0.0,0.0,0.0,0.0,0.0,0.0,0.0,0.0,0.0,0.0,0.0,0.0,0.0,0.0,0.0,0.0,0.0,0.0,0.0,0.0,0.0,0.0,0.0,0.0,0.0,0.0,0.0,7.0547,7.6172,6.875,7.4609,7.5156,0.0,0.0,0.0,0.0,0.0,0.0,9.1562,9.5469,10.1562,11.0468,11.2578,11.6875,12.3828,12.6015,12.8437,13.0937,13.2578,13.4297,13.6015,13.5781,13.4687,13.3125,13.2187,12.9297,12.4531,11.5781,10.6719,9.8047,9.625,9.4453,9.2969,9.4609,9.5078,9.5781,10.1797,10.289,10.1172,9.8437,0.0,9.1328,8.25,0.0,0.0,0.0,0.0,8.6797,9.6094,10.1484,10.5625,10.9922,11.1797,11.2422,11.1718,10.9531,10.4609,0.0,9.2187,8.8437,7.7344,0.0,0.0,0.0,0.0,10.5234,10.9687,11.5703,11.9609,11.9609,11.7968,11.6718,11.5781,11.4375,11.2812,11.1015,10.9687,10.7734,10.4687,9.9609,9.3594,8.6719,0.0,0.0,0.0,0.0,0.0,0.0,0.0,0.0,0.0,0.0,0.0,0.0,0.0,0.0,0.0,0.0,0.0,0.0,0.0,0.0,0.0,0.0,0.0,0.0,0.0,0.0,0.0,0.0,0.0,7.5156,8.4531,0.0,0.0,0.0,0.0,8.6094,9.4453,10.1484,10.6562,11.3984,12.0234,12.4765,12.75,12.9765,13.1875,13.289,13.3437,13.3593,13.5312,13.5703,13.5078,13.6718,13.6484,13.4765,13.3984,13.2109,12.9062,12.289,11.7578,11.3203,11.1484,11.0703,11.0234,10.7109,10.6875,10.8203,10.6875,10.6015,10.5937,10.9687,10.4765,9.6953,9.4844,9.0078,0.0,0.0,9.414,9.8906,10.2812,10.6406,10.9531,11.1406,11.1328,11.0703,11.0703,10.8593,10.6562,0.0,10.3125,9.9687,9.5781,0.0,9.4922,9.9609,10.3203,10.8125,11.5625,11.8281,11.9609,11.9609,11.7968,11.6718,11.5937,11.5,11.3672,11.1875,11.1797,11.0937,10.9062,10.6406,10.1719,9.4765,8.6094,0.0,0.0,0.0,0.0,0.0,0.0,0.0,0.0,0.0,0.0,0.0,0.0,0.0,0.0,0.0,0.0,0.0,0.0,0.0,0.0,0.0,0.0,0.0,0.0,0.0,0.0,0.0,0.0,8.3515,9.3515,0.0,8.8828,9.2265,9.664,10.039,10.9218,11.6172,12.0234,12.4609,12.8281,13.0937,13.1875,13.2734,13.3281,13.4218,13.4609,13.4609,13.5703,13.6093,13.5937,13.6484,13.5468,13.3437,13.3672,13.1718,12.8125,12.6484,12.3672,12.0234,11.9609,11.8984,11.8281,11.6484,11.6562,11.7422,11.5625,11.4062,11.2812,11.2109,10.8515,10.3984,10.2265,10.0312,9.8906,10.0078,10.289,10.6172,10.8515,11.0937,11.25,11.2031,11.1718,11.1406,11.1406,11.0703,11.039,11.1484,10.8515,10.4297,9.9765,10.2969,10.539,10.2812,10.789,11.3281,11.6562,11.7968,11.8828,11.8828,11.7187,11.6015,11.5781,11.3906,11.2578,11.1875,11.1406,11.0468,10.9297,10.7422,10.3828,9.8594,9.2187,8.289,0.0,0.0,0.0,0.0,0.0,0.0,0.0,0.0,0.0,0.0,0.0,0.0,0.0,0.0,0.0,0.0,0.0,0.0,0.0,0.0,0.0,0.0,0.0,0.0,0.0,0.0,9.5156,9.1406,10.1406,10.6172,10.0078,10.5,11.0234,11.4218,12.1172,12.6562,12.9687,13.1484,13.3125,13.4609,13.4609,13.4609,13.4609,13.4922,13.5,13.5,13.5312,13.5312,13.5,13.5,13.3906,13.2109,13.2422,13.0781,12.8203,12.8515,12.7265,12.5234,12.4609,12.4218,12.3828,12.2578,12.2812,12.3125,12.0468,11.8672,11.6875,11.3828,11.1562,10.9922,10.8515,10.8281,10.8515,10.8203,10.9531,11.1328,11.2109,11.2968,11.3437,11.25,11.1875,11.1484,11.1797,11.1875,11.2265,11.3828,11.2031,10.9297,10.6406,11.0703,11.2578,10.7187,11.2187,11.6406,11.5781,11.7031,11.789,11.789,11.6328,11.5078,11.4531,11.1484,10.9687,10.9687,10.75,10.6406,10.6719,10.3906,10.1015,9.8203,9.164,8.375,7.4531,0.0,0.0,0.0,0.0,0.0,0.0,0.0,0.0,0.0,0.0,0.0,0.0,0.0,0.0,0.0,0.0,0.0,0.0,0.0,0.0,0.0,0.0,0.0,8.3906,9.5781,10.2812,9.8828,10.8125,11.3828,11.1484,11.5,12.0234,12.7031,12.9922,13.25,13.4922,13.5078,13.5468,13.6328,13.6328,13.6172,13.6172,13.539,13.4922,13.4922,13.4062,13.3281,13.25,13.25,13.2031,13.1172,13.039,13.0,12.9765,12.8984,12.8593,12.8437,12.6718,12.6562,12.7109,12.539,12.5312,12.5312,12.1093,11.9062,11.7968,11.5468,11.4609,11.4375,11.3515,11.3906,11.4297,11.3437,11.3828,11.4297,11.3437,11.2578,11.2187,11.2968,11.1875,11.0937,11.1797,11.1875,11.2187,11.3125,11.3906,11.5,11.6718,11.7031,11.6172,11.3672,11.6172,0.0,11.3672,11.539,11.6875,11.6797,11.5312,11.3593,11.1875,10.7812,10.5312,10.539,10.0625,9.8906,10.1484,9.6797,9.4062,9.4062,8.4844,8.0,7.9922,0.0,0.0,0.0,0.0,0.0,0.0,0.0,0.0,0.0,0.0,0.0,0.0,0.0,0.0,0.0,0.0,0.0,0.0,0.0,0.0,0.0,8.8594,9.5703,9.4062,10.1406,10.8437,11.2187,11.7578,12.2187,12.5234,12.6562,12.8593,13.1797,13.4375,13.5937,13.5937,13.6484,13.6718,13.6328,13.5703,13.5078,13.4531,13.4218,13.3828,13.3203,13.2968,13.2734,13.25,13.25,13.2422,13.2187,13.2578,13.1718,12.9922,13.0312,12.9687,12.8515,12.7422,12.75,12.7968,12.5703,12.4531,12.3906,12.2109,12.1328,12.0781,11.8828,11.7265,11.6172,11.5312,11.4765,11.4297,11.3437,11.4297,11.5078,11.3593,11.3515,11.3672,11.3281,11.2422,11.1797,11.2734,11.2265,11.2265,11.3906,11.4297,11.5,11.6718,11.75,11.7734,11.7031,11.7187,0.0,11.6093,11.6015,11.5078,11.2578,11.0781,10.9297,10.8203,10.4219,10.2031,10.2578,10.0078,9.9219,10.0625,9.9297,9.8515,9.8515,9.1015,8.6562,0.0,0.0,0.0,0.0,0.0,0.0,0.0,0.0,0.0,0.0,0.0,0.0,0.0,0.0,0.0,0.0,0.0,0.0,0.0,0.0,0.0,0.0,10.0312,10.7969,10.9375,11.2734,11.6406,12.0,12.4218,12.7812,13.039,13.1562,13.2968,13.4609,13.6093,13.6875,13.6718,13.6484,13.6172,13.5781,13.4922,13.4297,13.3828,13.3828,13.3515,13.2968,13.2968,13.289,13.25,13.25,13.2265,0.0,13.25,13.1797,13.0468,13.1015,13.039,0.0,0.0,0.0,0.0,0.0,12.4765,12.3906,12.2578,12.2187,12.2031,12.0625,11.9218,11.789,11.7109,11.6172,11.5312,11.4062,11.4531,11.4922,11.3593,11.3593,11.3828,11.3281,11.3125,11.2968,11.3203,11.3437,11.3672,11.4375,0.0,0.0,11.6328,11.6875,11.6718,11.5312,11.5937,11.5937,11.4531,11.4765,11.4375,11.2422,11.0312,10.8593,10.7265,10.2969,0.0,0.0,0.0,9.5703,9.5469,9.6484,0.0,0.0,0.0,0.0,0.0,0.0,0.0,0.0,9.0625,8.9453,0.0,0.0,0.0,0.0,0.0,0.0,0.0,0.0,0.0,0.0,0.0,0.0,0.0,0.0,0.0,0.0,11.1015,11.8906,12.539,12.5781,12.5234,12.4609,12.8515,13.1093,13.0781,13.2734,13.4609,13.6172,13.6163,13.6468,13.7093,0.0,0.0,0.0,0.0,13.3828,13.3828,13.3828,13.3672,13.3593,13.3593,13.3203,13.25,13.25,13.2109,13.1484,13.1484,13.1406,13.1328,13.1328,13.0781,12.9765,12.8906,12.8515,12.8281,12.6718,12.5468,12.4375,12.289,0.0,0.0,12.1015,12.0078,11.9062,11.8281,11.7422,11.6406,11.4765,11.4375,11.4297,11.3437,11.3203,11.3203,11.3281,11.3906,11.4297,11.3593,11.4687,11.5468,11.4765,11.5312,11.5781,11.5781,11.5781,11.4687,11.1797,11.3672,0.0,11.1562,11.2968,11.4218,11.3828,0.0,0.0,10.7734,10.3125,10.0312,10.039,9.5547,9.1953,9.0547,9.3047,9.4453,9.4375,9.6172,10.0078,10.6172,10.8984,11.1562,11.3515,9.7265,9.4922,0.0,0.0,0.0,0.0,0.0,0.0,0.0,0.0,0.0,0.0,0.0,0.0,0.0,0.0,0.0,10.8828,11.6797,12.3437,12.75,12.8984,12.9922,13.0703,13.1015,13.2422,13.5625,13.5078,13.5468,13.7812,13.7399,13.6926,13.6538,13.5977,13.5468,13.5,13.3984,13.3593,13.3828,13.3828,13.3281,13.2422,0.0,0.0,13.2187,13.2187,13.2578,13.3281,13.3125,13.2734,13.2187,13.2187,13.1328,12.9765,12.8906,12.8203,12.75,12.7187,12.5625,12.3672,12.3437,12.2265,12.1015,12.0078,11.8828,11.7422,11.6484,11.5703,0.0,11.3672,11.3984,11.4297,11.3437,11.3203,11.3437,11.4062,11.4375,11.4609,11.5234,11.5625,11.5703,11.5468,11.6172,11.6718,11.6718,11.6172,11.5781,11.5781,11.5234,11.4687,11.4687,11.3984,11.2422,10.9609,10.8203,10.6797,10.5078,10.2109,10.0625,10.1328,10.0937,10.0781,10.1172,10.4297,10.5703,10.5,10.7422,10.9297,11.0703,11.4609,11.7187,11.8203,11.3281,11.1797,0.0,0.0,0.0,0.0,0.0,0.0,0.0,0.0,0.0,0.0,0.0,8.7734,9.5,0.0,10.9922,11.8125,12.3437,12.7422,13.0,13.1406,13.2031,13.1718,13.2734,13.4218,13.6328,13.573,13.5975,13.7965,13.7399,13.6775,13.6541,13.6359,13.5983,13.5393,13.4414,13.4218,13.4687,13.3906,13.3437,13.3437,13.3127,13.2985,13.2968,13.2971,13.3268,13.3756,13.3724,13.3437,13.3125,13.2187,13.1093,12.9765,12.8906,12.8281,12.789,12.75,12.6172,12.4609,12.3828,12.2578,12.1406,12.0468,11.9375,11.8125,11.7265,11.6406,11.5625,11.4687,11.4531,11.4531,11.4531,11.4218,11.4062,11.4922,11.539,11.5781,11.5781,11.6406,11.6875,11.6406,11.7109,11.7734,11.7734,11.7265,11.7031,11.7031,11.5937,11.5078,11.5078,11.3984,11.25,11.0781,10.9765,10.8828,10.75,10.539,10.4219,10.4219,10.539,10.6093,10.6093,10.8984,11.0781,11.1172,11.3437,11.4922,11.5781,11.9218,12.1093,12.1484,12.1093,12.0234,0.0,0.0,0.0,0.0,0.0,0.0,0.0,8.0312,8.3828,8.9844,9.4219,9.9765,10.9218,11.3576,11.8616,12.6902,12.9364,13.0937,13.2578,13.3422,13.3227,13.1822,13.4164,13.5961,13.6273,13.5953,13.6584,13.8334,13.7341,13.6585,13.6663,13.6585,13.6307,13.5702,13.4769,13.4711,13.5422,13.4086,13.3696,13.4321,13.3811,13.3637,13.3671,13.3415,13.3544,13.3841,13.36,13.3593,13.3672,13.1718,13.0468,12.9765,12.8906,12.8593,12.8515,12.7812,12.6797,12.5625,12.4218,12.2812,12.1562,12.0937,11.9922,11.8984,11.8281,11.7578,11.6797,11.5937,11.539,11.5078,11.5625,11.5234,11.5,11.5781,11.6484,11.6875,11.6484,11.7422,11.8203,11.7812,11.8203,11.8672,11.8984,11.9062,11.8593,11.7422,11.6484,11.5703,11.5078,11.4062,11.3515,11.3515,11.25,11.1718,11.1172,11.0,10.8984,10.8515,10.9765,11.0312,10.9765,11.1875,11.3906,11.5468,11.7109,11.8828,12.039,12.2968,12.4218,12.3984,12.5078,12.4609,7.2313,7.0767,7.2943,7.5662,7.894,8.4333,0.0,9.8594,10.1172,10.7187,11.3125,11.8125,12.1562,12.4598,12.7917,13.2019,13.2771,13.3593,13.5312,13.5294,13.5001,13.4773,13.605,13.7291,13.8646,13.7364,13.7512,13.9918,13.7912,13.667,13.6903,13.667,13.6285,13.5697,13.4697,13.4308,13.4536,13.4422,13.3765,13.2985,13.3893,13.3898,13.3125,13.2179,13.2484,13.3812,13.2967,13.3125,13.3593,13.1093,13.0,12.9765,12.8906,12.8593,12.8593,12.8515,12.7031,12.4922,12.4687,12.2578,11.9922,11.9765,11.8593,11.7265,11.7187,11.7109,11.6797,11.5937,11.6172,11.6562,11.6015,11.5703,11.5937,11.6718,11.6875,11.7422,11.8906,11.8672,11.8672,12.0234,11.9922,11.9922,12.1484,12.1797,12.0937,11.8515,11.7422,11.6797,11.6718,11.5312,11.4375,11.4375,11.289,11.2187,11.289,11.3437,11.3984,11.4687,11.4922,11.5312,11.6015,11.7031,11.7968,11.8984,12.0703,12.2109,12.3125,12.5625,12.6484,12.5781,12.7422,12.7187,8.2663,8.1609,8.308,8.8885,9.4111,9.9628,10.6694,11.0572,11.3895,11.7909,12.2656,12.6727,12.8284,13.0684,13.3104,13.5178,13.5422,13.552,13.6187,13.5262,13.4186,13.2984,13.4186,13.5852,13.8018,13.7125,13.7314,13.9298,13.8018,13.7167,13.7167,13.7167,13.7013,13.678,13.5887,13.5388,13.5506,13.446,13.4073,13.4305,13.4165,13.4093,13.3781,13.3415,13.2957,13.2578,13.2265,13.1797,13.1328,13.0234,12.9531,12.9062,12.8672,12.8593,12.8593,12.8593,12.7578,12.6093,12.5078,12.3203,12.0937,11.9922,11.8828,11.7812,11.7812,11.7812,11.7734,11.7265,11.7109,11.7031,11.7187,11.7265,11.75,11.8281,11.9297,12.0078,12.0312,12.0078,12.0234,12.1406,12.1015,12.0937,12.2734,12.2968,12.2422,12.0781,11.9375,11.8125,11.7109,11.5937,11.5234,11.5312,11.4609,11.4297,11.4609,11.5,11.5625,11.6406,11.6875,11.7578,11.8515,11.9375,12.0468,12.1797,12.2578,12.3593,12.5,12.6015,12.6562,12.6797,12.7031,12.7187,8.8353,9.022,9.3801,10.0711,10.7555,11.35,11.698,12.042,12.3589,12.618,12.9236,13.1752,13.2835,13.4494,13.6094,13.7433,13.7394,13.7303,13.7253,13.5578,13.3722,13.2098,13.1947,13.3107,13.5929,13.6197,13.7125,13.8989,13.8096,13.7477,13.7477,13.7477,13.7477,13.7477,13.6703,13.6316,13.628,13.4965,13.4733,13.5233,13.4614,13.4305,13.4305,13.4076,13.3232,13.1695,13.1784,13.1238,13.0233,12.9914,12.9609,12.9062,12.9218,12.9062,12.8906,12.8906,12.8281,12.7109,12.5625,12.3984,12.2265,12.0468,11.9375,11.8593,11.8437,11.8281,11.8281,11.8281,11.7812,11.7578,11.8437,11.8672,11.8906,11.9765,12.1093,12.2109,12.1718,12.1562,12.1875,12.2968,12.2422,12.2187,12.3906,12.3984,12.3593,12.2968,12.1562,12.0,11.7968,11.6718,11.6015,11.5781,11.6406,11.6718,11.6406,11.7109,11.7734,11.8125,11.8672,11.9531,12.0625,12.1328,12.2422,12.4218,12.4218,12.4922,12.6406,12.6406,12.6875,12.7968,12.7422,12.789,8.5871,9.4059,10.4145,10.9183,11.6827,12.3861,12.7417,12.8886,13.0319,13.2907,13.3531,13.4073,13.5852,13.6426,13.7104,13.8919,13.9108,13.9108,13.9066,13.6703,13.4614,13.3689,13.0127,12.8888,13.2293,13.4924,13.7322,13.9918,13.8525,13.7477,13.7477,13.7477,13.7477,13.7477,13.6703,13.6316,13.6316,13.6203,13.5779,13.4965,13.5001,13.4727,13.4109,13.3376,13.2488,13.1522,13.1715,13.1831,13.1709,13.0769,13.0468,13.0468,13.0703,13.0312,12.9609,12.9765,12.8828,12.7187,12.6328,12.4922,12.3203,12.1406,12.0312,11.9375,11.8593,11.8281,11.8281,11.8281,11.8281,11.8515,11.9297,11.9609,11.9765,12.0703,12.1484,12.2422,12.3203,12.3437,12.3906,12.5625,12.4609,12.3984,12.5625,12.5312,12.4765,12.4687,12.3984,12.2422,11.9922,11.7968,11.6562,11.5781,11.7968,11.9062,11.8281,12.0468,12.1718,12.0781,12.0781,12.1562,12.3281,12.3437,12.4218,12.5937,12.5937,12.6406,12.7265,12.7265,12.8125,12.9765,12.9765,13.0312,9.8508,10.6053,11.3313,12.0072,12.5676,13.0123,13.233,13.349,13.4186,13.4495,13.1902,12.9541,12.9113,12.9918,13.0858,13.1634,13.5767,13.8285,13.6695,13.6119,13.4305,12.9973,12.9779,12.9934,12.9894,13.117,13.356,13.7322,13.7013,13.6935,13.7477,13.8018,13.8096,13.7477,13.7786,13.7399,13.6316,13.6316,13.6162,13.5929,13.5893,13.5506,13.4692,13.3918,13.268,13.1288,13.1405,13.1095,13.0708,13.0423,13.0439,13.0517,13.0595,13.0571,13.039,12.9922,12.8984,12.7968,12.6484,12.5312,12.4218,12.2968,12.1328,11.9687,11.9922,11.9218,11.8437,11.8984,11.9218,11.9375,12.0234,12.0937,12.1484,12.2422,12.3672,12.4765,12.5078,12.5234,12.5312,12.5937,12.5078,12.4687,12.5781,12.5781,12.5625,12.5625,12.4375,12.2968,12.1484,12.0781,12.0312,12.0,12.0781,12.1172,12.0937,12.2187,12.3203,12.3515,12.289,12.3437,12.5078,12.4609,12.539,12.7734,12.7734,12.8437,12.9922,12.9922,13.0234,13.0781,13.0781,13.0937,10.8588,11.5511,12.1423,12.9118,13.2949,13.5037,13.6119,13.6584,13.6197,13.4495,12.9695,12.5331,12.3665,12.2505,12.2907,12.6721,13.1473,13.5106,13.6188,13.6119,13.4268,13.0089,12.978,12.9819,12.9507,12.9818,13.1592,13.5465,13.6084,13.6703,13.7477,13.8018,13.8173,13.8018,13.8173,13.7786,13.6703,13.6703,13.6394,13.581,13.5775,13.5197,13.4073,13.3454,13.2525,13.121,13.1482,13.121,13.0628,13.0628,13.0628,13.0706,13.0474,13.0298,13.0084,12.9364,12.8672,12.7812,12.6484,12.5468,12.4609,12.3437,12.1718,12.0078,12.039,11.9375,11.8515,11.9375,11.9609,11.9922,12.1093,12.1797,12.2422,12.3281,12.4609,12.5625,12.5625,12.5781,12.6015,12.6015,12.5781,12.5937,12.6406,12.6718,12.6797,12.6484,12.5468,12.4297,12.289,12.2422,12.2109,12.1797,12.2265,12.25,12.2187,12.3515,12.4531,12.4765,12.4531,12.5,12.6406,12.6015,12.6797,12.8984,12.9062,12.9765,13.1172,13.1172,13.1406,13.1718,13.1718,13.1797,11.5592,12.2268,12.8495,13.581,13.825,13.8912,13.8834,13.7976,13.6309,13.2907,12.6563,12.1231,11.9586,11.4687,11.4227,12.4318,12.6949,13.0426,13.77,13.6822,13.4928,0.0,0.0,0.0,0.0,0.0,13.1482,13.481,13.5775,13.6626,13.7477,13.7631,13.8018,13.8826,13.8096,13.7631,13.7631,13.7477,13.6703,13.5114,13.5114,13.4186,13.2598,13.2562,13.2139,13.1247,13.2139,13.1984,13.117,13.117,13.1092,13.1015,13.0396,12.97,12.885,12.8405,12.7733,12.6875,12.6172,12.539,12.4531,12.289,12.1718,12.0781,12.0,11.9218,11.8593,11.9531,11.9687,12.0078,12.1797,12.2265,12.25,12.3437,12.4218,12.4765,12.4922,12.5468,12.6015,12.6015,12.6718,12.7187,12.7187,12.789,12.8203,12.7422,12.7187,12.6406,12.3906,12.289,12.2031,12.1172,12.2578,12.3203,12.2422,12.4609,12.5703,12.5,12.5625,12.6484,12.7265,12.7422,12.8203,12.9922,13.0,13.0468,13.1328,13.1328,13.1797,13.2578,13.2578,13.2968,12.4204,13.0967,13.6231,13.8826,13.96,13.96,13.8904,13.6738,13.3525,12.9505,11.9377,11.1118,11.0525,11.0312,11.2539,11.9525,12.8733,13.5578,13.7623,13.8869,13.8489,13.512,0.0,13.3804,13.3103,13.3376,0.0,0.0,13.5197,13.6203,13.8447,13.9101,13.9488,13.984,13.9608,13.9144,13.8525,13.7786,13.7322,13.6935,13.628,13.5429,13.4305,13.3686,13.2912,13.2216,13.2371,13.1984,13.117,13.117,13.0437,12.9276,12.978,12.9702,12.9122,12.8388,12.773,12.7031,12.5625,12.5,12.4687,12.4297,12.3125,12.1875,12.2422,12.1406,12.039,12.1328,12.1484,12.1797,12.289,12.3203,12.3437,12.4297,12.4609,12.5,12.5625,12.5937,12.6015,12.6015,12.6172,12.6328,12.6328,12.6484,12.6562,12.6406,12.6328,12.6093,12.539,12.4609,12.4062,12.3828,12.4218,12.4375,12.4218,12.5937,12.6875,12.6718,12.6875,12.7422,12.8203,12.8281,12.9062,13.0781,13.1484,13.2265,13.3125,13.3125,13.3281,13.3515,13.3515,13.3593,13.2787,13.7546,14.0683,14.15,14.0915,13.8706,13.3285,12.9731,12.5095,11.6364,10.6599,9.9538,9.9434,10.1508,10.6113,11.4996,12.5795,13.441,13.8087,14.0184,14.0382,13.7554,13.7709,0.0,13.6042,13.6394,13.6745,0.0,13.6316,13.7132,13.9298,13.9488,13.9677,14.0107,13.972,13.8869,13.7709,13.7631,13.6935,13.581,13.6162,13.5506,13.3881,13.3804,13.3299,13.2525,0.0,13.2216,13.1674,13.0901,13.005,12.9083,12.889,12.8387,12.7806,12.7095,12.6507,12.5703,12.4609,12.4218,12.4218,12.4218,12.3281,12.2265,12.2812,12.2031,12.1015,12.1484,12.1875,12.2265,12.2812,12.3203,12.3593,12.4062,12.4218,12.4375,12.4765,12.5234,12.5625,12.5937,12.5703,12.5625,12.5937,12.6015,12.6015,12.6015,12.6015,12.6015,12.6015,12.5312,12.4765,12.4765,12.4765,12.5078,12.5781,12.6797,12.7578,12.8437,12.8437,12.8828,12.9687,12.9687,13.039,13.1718,13.2265,13.289,13.3828,13.3828,13.3828,13.3828,13.3828,13.3828,14.0219,14.2351,14.3124,14.3632,14.1809,13.7005,12.5698,12.092,11.4586,10.0312,9.2643,8.8744,8.9517,9.2526,9.9243,11.2542,12.2226,13.1001,13.9445,14.1345,14.15,14.0915,14.0683,14.0296,13.9608,13.9531,13.9411,13.929,13.8637,13.8792,14.015,13.9368,13.929,13.9909,13.9213,13.7976,13.6548,13.7167,13.6394,13.4186,13.5578,13.5078,13.299,13.3454,13.3299,13.268,13.2525,0.0,13.2216,13.0708,12.9935,12.9625,12.827,12.7226,12.6409,12.587,12.5305,12.4609,12.3984,12.3828,12.3828,12.3593,12.2968,12.2422,12.2422,12.1797,12.1172,12.1172,12.1797,12.2422,12.25,12.2968,12.3593,12.3828,12.3828,12.3672,12.3828,12.4375,12.5078,12.5703,12.5312,12.5,12.5703,12.5781,12.5937,12.6015,12.6015,12.6015,12.6172,12.5468,12.5,12.5,12.5,12.5625,12.7187,12.7422,12.8203,12.9765,13.0,13.039,13.1172,13.1328,13.1718,13.25,13.2734,13.3203,13.3984,13.4062,13.4062,13.4062,13.3984,13.3984,14.2494,14.4086,14.4395,14.3124,14.0915,13.5922,12.4085,11.7335,10.9553,9.5762,8.7805,8.4819,8.9686,9.3897,10.1796,11.7405,12.6514,13.4289,14.2119,14.3356,14.3666,14.424,14.3699,14.3235,14.3013,14.3013,14.266,14.2041,14.1809,14.162,14.1198,14.0339,13.96,13.8947,13.8869,13.8328,13.7322,13.7364,13.7286,13.678,13.6513,13.6126,13.562,13.4305,13.3649,13.3494,13.2758,0.0,13.1442,13.1133,13.0127,12.8928,12.9315,12.9006,12.8348,12.7625,12.7401,12.7422,12.5781,12.539,12.5312,12.3984,12.3437,12.3281,12.3281,12.3203,12.2968,12.2968,12.3203,12.3437,12.4218,12.3906,12.3828,12.5234,12.5078,12.4765,12.539,12.5703,12.5625,12.5078,12.4922,12.4765,12.5,12.5,12.5234,12.5937,12.6015,12.6328,12.7031,12.6328,12.5781,12.5781,12.5781,12.6172,12.7187,12.7968,12.8828,12.9765,13.0625,13.1015,13.1172,13.1875,13.2265,13.25,13.3906,13.4609,13.4765,13.5468,13.5937,13.5781,13.5078,13.5234,14.54,14.5864,14.54,14.3622,13.9986,13.2598,11.6556,10.8113,9.8958,8.2623,7.6766,7.5703,7.9375,8.6503,9.5105,10.5476,11.4312,12.3726,13.4367,13.6298,13.9125,14.571,14.6096,14.6096,14.6451,14.5755,14.5136,14.4749,14.3666,14.2858,14.2084,14.1233,14.0614,14.0227,13.9685,13.8834,13.7477,13.7906,13.7673,13.6935,13.6899,13.6703,13.6316,13.5001,13.4073,13.3727,13.2758,0.0,13.1829,13.1442,13.0746,12.9895,12.9895,12.9431,12.8695,12.8425,12.8186,12.7891,12.721,12.7001,12.7109,12.6328,12.5234,12.4218,12.4218,12.3906,12.3437,12.2968,12.3203,12.3672,12.4609,12.4531,12.4609,12.6328,12.6406,12.6172,12.6562,12.7031,12.7109,12.6328,12.6093,12.6015,12.5468,12.539,12.5625,12.5937,12.6797,12.75,12.789,12.8437,12.8515,12.8125,12.7578,12.789,12.9218,12.9687,13.0312,13.1172,13.2109,13.2734,13.3203,13.3984,13.4531,13.4531,13.5312,13.5937,13.6406,13.6797,13.7187,13.7578,13.7187,13.7031,14.6993,14.7302,14.6406,14.3963,13.8893,12.9182,10.9456,9.958,8.9407,7.0924,6.7101,6.7785,7.0362,7.8332,8.6902,9.3921,10.2015,11.2348,12.6607,12.9997,13.5127,14.6406,14.7998,14.854,14.9159,14.7921,14.7024,14.6792,14.4891,14.3267,14.2273,14.1698,14.1311,14.1001,14.0382,13.9411,13.8018,13.8482,13.8096,13.678,13.7245,13.709,13.6548,13.5578,13.4692,13.3804,13.3067,0.0,0.0,13.1674,13.152,13.1442,13.0706,13.001,12.9391,12.9391,12.9004,12.8464,12.8491,12.857,12.8932,12.8903,12.7265,12.5312,12.5312,12.4687,12.3906,12.3203,12.3515,12.4297,12.5312,12.5468,12.5781,12.75,12.7968,12.8125,12.789,12.8515,12.8828,12.7812,12.7578,12.7422,12.6718,12.6562,12.6562,12.6797,12.8203,12.9218,12.9375,13.0468,13.1093,13.1015,12.9922,12.9922,13.1562,13.1797,13.2187,13.3203,13.4062,13.4922,13.5468,13.6406,13.6875,13.6875,13.7031,13.75,13.8203,13.8281,13.8828,13.9531,13.9297,13.8906,14.5864,14.7921,14.7611,14.3422,13.7408,12.7255,10.7721,9.6996,8.6259,6.8893,6.4948,6.6239,7.1705,7.539,8.2009,9.57,10.1763,11.0329,12.6446,13.2023,13.7798,14.6715,14.9113,15.0118,15.0195,14.9345,14.8417,14.7611,14.5221,14.296,14.1224,14.119,14.0803,13.9909,13.9909,13.9832,13.9522,13.8792,13.8405,13.8173,13.7512,13.7202,13.709,13.6197,13.5311,13.45,13.3727,0.0,0.0,13.2371,13.2371,13.2371,13.2293,13.2216,13.1984,13.1247,13.1092,13.0978,13.0321,13.0321,13.0716,13.0728,12.8984,12.7109,12.7109,12.6484,12.5781,12.5703,12.5703,12.6172,12.7812,12.7734,12.75,12.9218,13.0312,13.0625,12.9765,13.0312,13.0468,12.8828,12.8515,12.8515,12.8437,12.8437,12.8593,12.9375,13.039,13.1172,13.2031,13.1562,13.2109,13.4297,13.2422,13.1718,13.3437,13.3593,13.4218,13.5781,13.6797,13.7265,13.7422,13.8203,13.8672,13.8672,13.9375,13.9922,14.0,14.0781,14.1172,14.1172,14.039,14.0468,14.4643,14.725,14.697,14.3088,13.6796,12.6591,10.7913,9.6511,8.5421,6.9752,6.5543,6.5606,6.8414,7.0118,7.4013,8.2979,8.5739,9.3,11.0923,11.6556,12.4718,14.0548,14.4845,14.7906,15.151,15.0582,14.8881,14.687,14.571,14.4422,14.3088,14.2316,14.1565,14.1224,14.1257,14.0801,13.9671,13.9413,13.8873,13.8382,13.8102,13.7871,13.7919,13.71,13.602,13.4709,13.3908,0.0,0.0,13.2525,13.2525,13.2525,13.2525,13.2525,13.2525,13.2139,13.1674,13.1288,13.152,13.1442,13.1366,13.2001,13.0978,12.9375,12.8984,12.75,12.6093,12.6562,12.6406,12.6484,12.8828,12.9922,13.0468,13.0625,13.1328,13.1562,13.0234,13.1015,13.1328,12.8984,12.8984,12.9218,12.8672,12.8593,12.8906,12.9765,13.0625,13.1484,13.2422,13.2734,13.3203,13.4218,13.3437,13.3515,13.5234,13.5312,13.5781,13.7031,13.789,13.8593,13.9062,14.0,14.0468,14.0468,14.0781,14.1172,14.1797,14.2109,14.25,14.2968,14.2578,14.2734,14.2702,14.6247,14.6336,14.2609,13.4736,12.3571,10.7102,9.4729,8.2958,6.9826,6.5816,6.4948,6.5741,6.6554,6.8721,7.378,7.6381,8.3465,9.9925,10.613,11.5124,13.1619,13.7212,14.1892,14.7288,14.9035,14.8834,14.6218,14.5992,14.5468,14.4545,14.3412,14.2882,14.2896,14.2395,14.1643,14.0357,13.9588,13.8873,13.831,13.8002,13.7873,13.8027,13.7488,13.6438,13.4689,13.4507,0.0,0.0,13.268,13.268,13.2525,13.2525,13.2525,13.2525,13.2525,13.2061,13.1674,13.2293,13.2216,13.1986,13.2533,13.1787,13.0781,13.0312,12.8593,12.6875,12.75,12.7578,12.789,12.9531,13.1172,13.2265,13.1406,13.1875,13.2031,13.0312,13.1484,13.2109,12.9531,12.9922,13.039,12.9531,12.9609,13.0,13.0625,13.1406,13.2265,13.3125,13.3593,13.3984,13.4531,13.4297,13.4687,13.6172,13.6328,13.6875,13.8281,13.9218,14.0078,14.0937,14.1797,14.2109,14.1875,14.1875,14.2109,14.2422,14.2422,14.2812,14.3593,14.3593,14.3828,13.9665,14.5203,14.6105,14.1707,13.058,11.7308,10.4483,9.0594,7.781,6.8199,6.4889,6.4095,6.4889,6.5698,6.7652,7.2133,7.911,8.7609,9.8108,10.5972,11.3363,12.0379,12.6436,13.1702,13.5884,14.3763,14.7888,14.5951,14.5951,14.551,14.451,14.4433,14.4412,14.4445,14.2928,14.2027,14.1874,13.9388,13.8079,13.8079,13.718,13.6896,13.6942,13.6973,13.6049,13.4727,13.5584,0.0,0.0,13.3299,13.3222,13.2525,13.2525,13.2525,13.2525,13.2525,13.2525,13.2525,13.2525,13.2603,13.2603,13.1792,13.1179,13.0937,13.0937,12.9765,12.8593,12.8593,12.9765,13.1015,13.0078,13.1172,13.2265,13.1406,13.1875,13.2031,13.0312,13.1875,13.2968,13.039,13.1328,13.2187,13.1328,13.1875,13.25,13.25,13.3203,13.4062,13.4922,13.4297,13.4375,13.6093,13.5468,13.5312,13.6172,13.6328,13.7422,14.0,14.1015,14.1875,14.2734,14.3515,14.3593,14.2812,14.2812,14.2422,14.1484,14.1484,14.2031,14.2812,14.2812,14.3203,12.0216,12.4522,12.519,12.0337,11.4244,10.649,9.547,8.6829,7.8684,6.9845,6.6611,6.5682,6.6533,6.6436,6.998,8.1596,8.4815,8.9711,10.0832,10.7725,11.3367,11.7896,13.0319,14.0296,14.5092,14.7302,14.802,14.6798,14.6644,14.6413,14.6105,14.6105,14.5643,14.4412,14.328,14.2258,14.1004,13.9619,13.831,13.718,13.7618,13.7488,13.7026,13.7813,13.7193,13.5578,13.5429,0.0,0.0,13.299,13.268,13.2525,13.2525,13.2525,13.2603,13.3067,13.2603,13.1906,13.3609,13.3067,13.1906,13.2953,13.2788,13.2126,13.1724,13.058,12.9531,12.9531,13.0312,13.1093,13.0937,13.1562,13.2578,13.289,13.2734,13.2265,13.1797,13.2265,13.25,13.1093,13.1172,13.1484,13.1172,13.1406,13.1797,13.2422,13.2734,13.3203,13.4062,13.4375,13.4765,13.539,13.5234,13.5625,13.7109,13.7187,13.8125,14.0078,14.1015,14.1875,14.2812,14.2968,14.3125,14.2812,14.2187,14.1797,14.1484,14.1484,14.1875,14.2812,14.4609,14.4922,10.8267,11.3043,11.3483,10.9979,10.4708,9.825,9.0312,8.3134,7.6394,7.0078,6.7405,6.6379,6.6941,6.6863,6.9923,7.989,8.4686,8.9469,9.6332,10.4519,11.1894,11.7896,12.9199,13.9279,14.6238,14.7798,14.8008,14.7105,14.6875,14.6875,14.6875,14.6875,14.6413,14.5356,14.3916,14.2511,14.1081,13.9619,13.8233,13.6796,13.7411,13.749,13.71,13.7811,13.7399,13.6239,13.6007,0.0,0.0,13.3995,13.3494,13.299,13.3299,13.3067,13.2603,13.3763,13.3299,13.2371,13.4305,13.3995,13.2758,13.3686,13.3222,13.2296,13.2318,13.1143,12.9734,12.9764,13.0234,13.0625,13.0703,13.1093,13.1718,13.2578,13.2422,13.2031,13.2031,13.25,13.2734,13.1875,13.2031,13.2265,13.2578,13.2578,13.289,13.3828,13.3906,13.4218,13.5078,13.539,13.5625,13.5937,13.5703,13.6093,13.75,13.7265,13.7968,14.0078,14.0703,14.1406,14.2265,14.2265,14.2187,14.1797,14.1328,14.0781,14.0468,14.0781,14.1562,14.2812,14.4062,14.4375,0.0,10.7301,10.7658,10.6726,9.9429,9.1393,8.7396,7.9192,0.0,6.9206,6.7405,6.6301,6.6533,6.7095,6.8432,7.1182,8.1124,8.8307,8.7884,9.8503,11.0375,12.1029,12.5542,13.1812,14.1553,14.5895,14.7798,14.7028,14.6875,14.6875,14.6875,14.6875,14.6875,14.6875,14.451,14.2818,14.1874,13.9388,13.7695,13.6796,13.6873,13.71,13.7167,13.7322,13.7013,0.0,0.0,0.0,0.0,13.5893,13.5274,13.3881,13.4733,13.4036,13.2912,13.446,13.446,13.3918,13.4924,13.5078,13.4924,13.4073,13.2912,13.1829,13.2758,13.1324,12.941,12.9578,12.9608,12.9609,12.9765,12.9922,13.0234,13.1093,13.1328,13.1328,13.1406,13.2734,13.3672,13.289,13.3437,13.4218,13.5,13.5078,13.539,13.6172,13.6328,13.6562,13.7422,13.6875,13.6718,13.75,13.6875,13.6718,13.7578,13.6875,13.75,14.0,14.0234,14.0625,14.1406,14.1406,14.1093,14.0312,14.0234,13.9765,13.8906,13.9765,14.1093,14.2734,14.2031,14.25,7.9438,0.0,8.3706,8.0919,7.8882,7.7001,0.0,7.2291,7.0092,0.0,0.0,6.7018,6.9613,6.8664,7.1513,8.3853,9.085,9.5371,9.7277,10.6747,11.9171,13.4381,13.759,14.069,14.6222,14.7644,14.7798,14.7028,14.6875,14.6875,14.6875,14.6875,14.6875,14.6875,14.5126,14.3434,14.1874,14.0004,13.831,13.6796,13.6873,13.7023,13.709,13.7322,13.7322,0.0,0.0,0.0,13.6007,13.5543,13.5114,13.465,13.4887,13.4769,13.4495,13.562,13.5388,13.4924,13.6394,13.6084,13.5078,13.5543,13.4614,13.3222,13.3531,13.156,12.9418,13.0081,12.9962,12.9609,12.9687,13.0312,13.1093,13.2031,13.2187,13.25,13.3828,13.4375,13.4922,13.5312,13.5625,13.5781,13.6015,13.6015,13.6093,13.6328,13.6328,13.6406,13.6562,13.7031,13.7422,13.7578,13.7422,13.7578,13.8515,13.7812,13.7812,13.9062,13.9765,14.0312,14.0468,14.0468,14.0703,14.1172,14.0468,13.9765,13.8906,13.9765,14.0781,14.1797,14.289,14.3593,6.9303,7.2921,7.6095,7.4624,7.4315,7.4005,7.2667,7.081,0.0,0.0,0.0,0.0,6.9691,6.9662,7.2545,8.2549,8.9909,9.809,10.8594,11.4277,12.3586,14.0078,14.242,14.432,14.8375,14.8798,14.8316,14.7028,14.6875,14.6875,14.6875,14.6875,14.6875,14.6875,14.5664,14.3972,14.1874,14.0234,13.8464,13.6796,13.6873,13.7028,13.7011,13.7243,13.7258,0.0,0.0,0.0,13.678,13.7167,13.6703,13.5578,13.6007,13.5697,13.5191,13.6394,13.6084,13.5233,13.6935,13.6935,13.6162,13.6316,13.5388,13.4227,13.3376,13.1829,13.0204,13.0282,12.9783,12.9494,13.0539,13.0937,13.1406,13.2812,13.3125,13.3437,13.4687,13.5312,13.5937,13.6718,13.6562,13.6562,13.7422,13.7187,13.6875,13.6875,13.7187,13.7187,13.6406,13.7422,13.7968,13.7578,13.7968,13.8437,13.8906,13.8515,13.8437,13.8906,13.9297,13.9609,13.9609,14.0,14.039,14.0937,14.0,13.9609,13.9531,14.0,14.0937,14.2109,14.2968,14.3593,6.6554,7.159,7.6379,7.6183,7.6028,7.5563,7.4421,0.0,0.0,0.0,0.0,0.0,0.0,7.1549,0.0,0.0,8.8554,10.21,12.1294,12.2927,12.7689,14.2723,14.4576,14.5838,14.9048,14.9413,14.8778,14.7028,14.6875,14.6875,14.6875,14.6875,14.6875,14.6875,14.6028,14.428,14.195,14.0311,13.8695,13.7026,13.7026,13.7026,13.7026,13.7103,13.7205,13.7314,0.0,0.0,13.7512,13.9221,13.8525,13.6626,13.7167,13.6626,13.5578,13.7013,13.6394,13.5156,13.6626,13.709,13.7013,13.6316,13.5543,13.4537,13.268,13.1597,13.0901,13.0282,12.9586,12.9608,13.1527,13.1711,13.1718,13.3437,13.3984,13.4375,13.5078,13.5937,13.6797,13.7578,13.7187,13.7187,13.8593,13.8281,13.7812,13.7578,13.8203,13.8203,13.6718,13.7734,13.8281,13.7812,13.8281,13.8828,13.8906,13.8906,13.8984,13.9062,13.8984,13.8906,13.8906,13.9922,14.0312,14.0,13.9531,13.9609,14.0234,14.0078,14.1015,14.2812,14.2734,14.3125,6.9285,7.3433,7.5232,7.0271,7.1146,7.2558,7.0268,0.0,0.0,0.0,0.0,0.0,0.0,7.7689,8.2288,0.0,10.4605,11.8298,13.582,13.6126,13.8367,14.8701,15.0491,15.0202,14.8605,14.9106,14.8778,14.7028,14.6875,14.6875,14.6875,14.6875,14.6875,14.6875,14.5356,14.3685,14.1917,14.0927,13.9594,13.7925,13.718,13.6796,13.6796,13.7026,13.7002,13.7105,0.0,13.8228,13.7457,13.8362,13.8173,13.7322,13.7477,13.7322,13.709,13.7399,13.6394,13.5001,13.5311,13.5388,13.5388,13.5233,13.4614,13.3376,13.0978,13.0204,13.0127,12.9972,12.9972,13.0283,13.1547,13.2426,13.3125,13.3672,13.4922,13.6015,13.6093,13.6797,13.7734,13.8515,13.8593,13.8593,13.8906,13.8828,13.8515,13.7734,13.7734,13.7734,13.7422,13.7031,13.7187,13.8593,13.8203,13.8125,13.8828,13.8906,13.9218,14.0,13.9297,13.8906,13.8906,14.039,14.0625,13.9062,14.039,14.0781,14.0234,13.9531,14.039,14.2812,14.2031,14.25,6.7019,7.0711,7.387,7.4846,7.6598,7.762,0.0,0.0,0.0,0.0,0.0,0.0,7.8895,8.4529,9.3308,10.8131,11.6593,12.5833,13.8715,14.0128,14.2828,15.0721,15.1875,15.1337,14.9066,14.926,14.8778,14.7028,14.6875,14.6875,14.6875,14.6875,14.6875,14.6875,14.6182,14.4664,14.2588,14.1697,13.9979,13.7411,13.7026,13.6796,13.6796,13.6873,13.6873,13.7026,0.0,13.8286,13.7309,13.8661,13.8602,13.7399,13.7477,13.7477,13.7322,13.6007,13.5816,13.6203,13.481,13.5156,13.6316,13.5775,13.5078,13.3995,13.1906,13.1288,13.1288,13.1288,13.0978,13.1055,13.2643,13.3706,13.4415,13.4291,13.552,13.6577,13.6325,13.7265,13.8281,13.8828,13.8906,13.8906,13.8906,13.8906,13.8593,13.7734,13.7578,13.7422,13.7031,13.7031,13.7265,13.8125,13.8281,13.8515,13.8906,13.8906,13.9297,14.0078,13.9765,14.0,14.1015,14.0937,14.0937,14.1015,14.1328,14.1328,14.0937,14.1015,14.1797,14.3437,14.2968,14.3515,6.6089,6.9308,7.3459,8.015,0.0,0.0,0.0,0.0,0.0,0.0,0.0,0.0,8.4297,9.359,10.5537,11.9904,12.7319,13.3892,14.1398,14.3621,14.6507,15.1703,15.2106,15.1414,14.9894,14.9567,14.8932,14.7259,14.7028,14.6875,14.6875,14.6875,14.6875,14.6875,14.6721,14.5413,14.2797,14.1981,14.0133,13.7103,13.6873,13.6796,13.6796,13.6796,13.6796,13.6873,13.8464,13.8257,13.7127,13.8787,13.8706,13.7399,13.7399,13.7399,13.7167,13.4924,13.5429,13.6863,13.481,13.5311,13.678,13.6239,13.5388,13.4382,13.268,13.2216,13.2216,13.2371,13.2216,13.2216,13.4191,13.5079,13.5523,13.5326,13.6219,13.7069,13.6613,13.7562,13.8593,13.8828,13.8906,13.8906,13.8906,13.8906,13.8593,13.7734,13.7578,13.7422,13.6718,13.7031,13.75,13.789,13.8281,13.8828,13.9218,13.9375,13.9922,14.0781,14.039,14.0937,14.2422,14.1172,14.1093,14.25,14.2031,14.1797,14.1797,14.2265,14.2968,14.3984,14.3828,14.4218,7.0738,7.287,7.5154,8.1174,0.0,0.0,0.0,0.0,0.0,0.0,0.0,0.0,0.0,10.667,11.8705,12.4795,13.7907,14.8138,15.0178,15.1211,15.2087,15.3319,15.2568,15.1645,15.0663,14.9932,14.9086,14.8239,14.7413,14.6875,14.6875,14.6875,14.6875,14.6875,14.6182,14.4587,14.1937,14.1081,13.9825,13.8002,13.718,13.6796,13.6796,13.6796,13.6796,13.6873,13.7849,13.7695,13.7103,13.8002,13.789,13.7167,13.7167,13.7322,13.7167,13.5501,13.5465,13.6244,13.5274,13.5001,13.5233,13.5114,13.4495,13.3531,13.1829,13.1288,13.152,13.2293,13.299,13.3995,13.5852,13.6513,13.6476,13.6711,13.7352,13.7909,13.7018,13.7789,13.8593,13.8593,13.8828,13.8906,13.8906,13.8906,13.8593,13.7734,13.7578,13.7578,13.75,13.6875,13.7031,13.8593,13.8125,13.8281,14.0,14.0781,14.1718,14.2578,14.1093,14.0625,14.1562,14.1484,14.1484,14.1562,14.2265,14.2734,14.2734,14.2031,14.2422,14.3984,14.3203,14.3281,6.7193,7.0758,7.6012,8.5219,0.0,0.0,0.0,0.0,0.0,0.0,0.0,0.0,0.0,0.0,12.3396,13.1807,14.2403,15.0148,15.1849,15.2621,15.297,15.2568,15.2183,15.1491,15.0125,14.9663,14.8875,14.749,14.7105,14.6875,14.6875,14.6875,14.6875,14.6875,14.5587,14.4203,14.2686,14.0719,13.9157,13.8079,13.718,13.6796,13.6796,13.6796,13.6796,13.6873,13.831,13.8079,13.7026,13.8387,13.8183,13.71,13.7254,13.7366,13.7167,13.5578,13.5929,13.6899,13.547,13.5661,13.6626,13.6626,13.6007,13.5233,13.4614,13.3995,13.3686,13.4614,13.5078,13.5543,13.6239,13.678,13.709,13.678,13.6865,13.6935,13.6321,13.6494,13.692,13.7405,13.7786,13.8203,13.8593,13.8828,13.8828,13.8515,13.789,13.7812,13.8281,13.7578,13.7578,13.8828,13.9062,13.9531,14.0078,14.1484,14.2422,14.2812,14.2187,14.2187,14.2968,14.2578,14.25,14.2968,14.3437,14.3515,14.3515,14.3203,14.3672,14.4765,14.3906,14.3984,6.6533,7.0235,7.6245,0.0,0.0,0.0,0.0,0.0,0.0,0.0,0.0,0.0,0.0,0.0,0.0,0.0,14.4736,15.0999,15.2501,15.3203,15.3124,15.2106,15.1799,15.0971,14.9586,14.9279,14.8644,14.7413,14.7105,14.6875,14.6875,14.6875,14.6875,14.6875,14.5741,14.4357,14.2665,14.1004,13.9311,13.7695,13.7103,13.6796,13.6796,13.6796,13.6796,13.6873,13.8618,13.8488,13.7358,13.908,13.8849,13.7411,13.7618,13.7534,13.7167,13.6119,13.6548,13.7322,13.6166,13.6513,13.7477,13.7477,13.7013,13.6316,13.6316,13.5697,13.5233,13.6084,13.6316,13.6316,13.6316,13.6935,13.7322,13.6703,13.6394,13.6084,13.562,13.5543,13.582,13.6587,13.7105,13.7572,13.8514,13.8672,13.8828,13.8906,13.8437,13.8203,13.8828,13.8437,13.8203,13.8828,13.9375,14.0,14.0625,14.1718,14.2578,14.3125,14.289,14.3203,14.3984,14.3203,14.3203,14.3984,14.3984,14.3984,14.3984,14.3984,14.4297,14.4922,14.4297,14.4297,7.037,7.2366,7.5985,0.0,0.0,0.0,0.0,0.0,0.0,0.0,0.0,0.0,0.0,0.0,0.0,13.6463,14.5246,15.1829,15.33,15.355,15.3088,15.2106,15.126,15.0355,14.9586,14.8721,14.8239,14.8239,14.7413,14.6875,14.6875,14.6875,14.6875,14.6875,14.6875,14.5314,14.188,14.1928,14.0181,13.6796,13.6796,13.6796,13.6796,13.6796,13.6796,13.6873,13.8618,13.8896,13.8214,13.9873,13.9594,13.8079,13.8233,13.7765,13.7245,13.7399,13.7399,13.7477,13.7477,13.7477,13.7477,13.7477,13.7013,13.6316,13.6316,13.5697,13.5233,13.6084,13.6316,13.6316,13.6316,13.6935,13.7322,13.6471,13.6316,13.6007,13.5233,13.5078,13.5471,13.6419,13.6666,13.7271,13.8416,13.8593,13.8672,13.8906,13.8906,13.8906,13.8906,13.8906,13.8906,13.8906,13.8906,13.9609,14.1406,14.1484,14.2187,14.3906,14.3203,14.3203,14.3984,14.3203,14.3203,14.3984,14.3984,14.3984,14.3984,14.3984,14.3984,14.3984,14.3984,14.3984,6.7782,7.3532,0.0,8.8552,0.0,0.0,0.0,0.0,0.0,0.0,0.0,13.1282,13.0113,0.0,0.0,13.7612,14.4322,14.9758,15.1414,15.1106,15.0586,15.0279,15.0029,14.9548,14.8721,14.8336,14.7931,14.7259,14.7028,14.6875,14.6875,14.6875,14.6875,14.6875,14.5203,14.3741,14.2742,14.0412,13.8695,13.7695,13.7103,13.6796,13.6796,13.6796,13.6796,13.6873,13.9157,13.9358,13.806,13.8611,13.8512,13.8127,13.7565,13.7285,13.7177,13.7347,13.7399,13.7477,13.7477,13.7477,13.7477,13.7477,13.7322,13.709,13.709,13.7013,13.678,13.709,13.6703,13.6316,13.6316,13.6007,13.5697,13.5388,13.4924,13.4382,13.4073,13.3763,13.3881,13.52,13.5819,13.6478,13.7943,13.7788,13.7483,13.7733,13.7812,13.7968,13.8828,13.8906,13.8906,13.8906,13.9375,14.0312,14.1406,14.2109,14.289,14.3906,14.3203,14.3203,14.3984,14.3203,14.3203,14.3984,14.3984,14.3984,14.3984,14.3984,14.3984,14.3984,14.3984,14.3984,7.3947,8.0867,0.0,9.7534,10.9571,12.2612,13.4371,0.0,0.0,0.0,0.0,13.7689,13.8228,13.8585,0.0,14.1495,14.5776,14.9279,15.0183,14.9875,14.9413,14.9029,14.8952,14.8624,14.7798,14.7644,14.749,14.6875,14.6644,14.6336,14.5895,14.5587,14.5203,14.4895,14.3685,14.2609,14.1609,14.0311,13.8849,13.7618,13.7411,13.7103,13.6796,13.6796,13.6796,13.6873,13.8796,13.9588,13.9555,13.9226,13.9127,13.9027,13.8618,13.8079,13.767,13.7766,13.7709,13.7477,13.7477,13.7477,13.7477,13.7477,13.7477,13.7477,13.7477,13.7322,13.7013,13.7013,13.6394,13.5697,13.5388,13.4924,13.4537,13.446,13.4073,13.3609,13.3299,13.2912,13.299,13.4227,13.5001,13.5852,13.7167,13.7125,13.6899,13.7105,13.7226,13.7578,13.8281,13.8672,13.8906,13.8906,13.9375,14.0,14.0937,14.1484,14.2109,14.2968,14.2187,14.2265,14.3515,14.3125,14.3203,14.3984,14.3984,14.3984,14.3984,14.3984,14.3984,14.3984,14.3984,14.3984,8.451,9.1345,9.8965,10.679,11.6176,0.0,14.1456,14.4818,14.5203,14.6721,0.0,14.3005,14.5339,14.4605,14.4377,14.6702,14.8451,14.9433,14.9317,14.9163,14.8778,14.8008,14.7931,14.749,14.6721,14.6721,14.6798,14.6798,14.6105,14.5356,14.4587,14.3588,14.2762,14.1994,14.2609,14.1763,13.9358,14.085,13.9979,13.6796,13.7565,13.7618,13.6796,13.6796,13.6796,13.7026,13.7819,13.9588,14.172,14.095,14.0566,14.0595,14.0441,13.9542,13.844,13.8352,13.8018,13.7477,13.7477,13.7477,13.7477,13.7477,13.7477,13.7477,13.7399,13.6935,13.6394,13.6239,13.5578,13.4805,13.3877,13.3567,13.3609,13.3609,13.3609,13.3376,13.268,13.2525,13.268,13.3531,13.4305,13.5233,13.6316,13.6394,13.6435,13.6708,13.6871,13.7187,13.75,13.8281,13.8828,13.8906,13.8828,13.9218,14.0078,14.0234,14.0625,14.1406,14.0703,14.1015,14.2734,14.2734,14.3125,14.3984,14.3984,14.3984,14.3984,14.3984,14.3984,14.3984,14.3984,14.3984,8.251,9.3025,10.5358,11.438,12.7208,13.9017,14.428,14.6028,14.6336,14.6105,14.551,14.5028,14.483,14.5622,14.6356,14.6914,14.7817,14.8259,14.7567,14.6875,14.6182,14.5279,14.5203,14.5126,14.4972,14.5587,14.6028,14.6028,14.5741,14.5567,14.5391,14.3906,14.2982,14.2828,14.2366,14.1235,13.9358,13.9696,13.8796,0.0,13.6973,13.7026,13.6796,13.6796,13.718,13.7925,13.8695,13.9696,14.0903,14.0719,14.0643,14.0489,13.9204,13.8512,13.8257,13.7689,13.7477,13.7477,13.7477,13.7477,13.7477,13.7477,13.7477,13.7399,13.6703,13.6935,13.7013,13.5584,13.512,13.481,13.3918,13.3222,13.2835,13.2758,13.2758,13.268,13.2525,13.2525,13.268,13.3531,13.3918,13.4305,13.5233,13.4846,13.4382,13.4733,13.5,13.5781,13.7187,13.7734,13.8125,13.8828,13.8281,13.8515,14.0078,14.0234,14.0625,14.1406,14.0703,14.1015,14.2734,14.2109,14.25,14.3984,14.3984,14.3984,14.3984,14.3984,14.3984,14.3984,14.3984,14.3984,8.647,9.7828,11.0798,12.4162,13.5098,14.2686,14.3685,14.4818,14.5203,14.3608,14.4587,14.5622,14.5105,14.5853,14.6259,14.5761,14.6356,14.6721,14.5741,14.5336,14.4874,14.4489,14.4412,14.4566,14.4951,14.5105,14.5413,14.6182,14.5126,14.4489,14.4468,14.2774,14.1673,14.1341,14.0903,14.0004,13.8688,13.9104,13.8541,13.682,13.718,13.7026,13.618,13.6565,13.7026,13.7488,13.7925,13.8618,13.9412,13.9819,13.9973,13.9896,13.9511,13.8896,13.831,13.7766,13.7477,13.7399,13.7399,13.7477,13.7477,13.7477,13.7167,13.6935,13.6935,13.6316,13.562,13.5078,13.4382,13.3727,13.3222,13.2758,13.2525,13.2525,13.2835,13.299,13.2603,13.3067,13.3609,13.3222,13.3841,13.4305,13.4382,13.3995,13.3609,13.3494,13.3989,13.4766,13.5776,13.6472,13.7031,13.75,13.7578,13.7968,13.8906,13.9297,13.9765,14.0234,13.9765,14.039,14.2109,14.1718,14.2265,14.3984,14.3984,14.3984,14.3984,14.3984,14.3984,14.3984,14.3984,14.3984,8.9918,10.2586,11.6136,13.2455,13.9534,14.2301,14.1994,14.3049,14.3434,14.1246,14.3203,14.516,14.4907,14.5138,14.5006,14.428,14.4895,14.5259,14.428,14.4182,14.4083,14.4006,14.4006,14.4314,14.4984,14.4468,14.4853,14.6105,14.428,14.3126,14.3082,14.1489,14.0104,13.908,13.908,13.8565,13.7458,13.8181,13.7925,13.6565,13.7488,13.7026,13.5512,13.618,13.6565,13.6565,13.6873,13.7411,13.815,13.8973,13.9281,13.9434,13.9896,13.9412,13.8209,13.7984,13.7579,13.6961,13.727,13.7314,13.7167,13.7399,13.6935,13.6394,13.6858,13.562,13.3995,13.4418,13.3686,13.268,13.2525,13.2525,13.2525,13.2525,13.3067,13.3531,13.268,13.3609,13.4227,13.2835,13.3609,13.4305,13.3376,13.3299,13.299,13.2411,13.3107,13.3802,13.4122,13.5,13.5682,13.6171,13.6875,13.75,13.7812,13.8515,13.8906,13.8906,13.8906,13.9609,14.1172,14.1406,14.2187,14.3828,14.3906,14.3984,14.3984,14.3984,14.3984,14.3984,14.3984,14.3984,8.4185,10.2781,12.2574,13.3069,13.7819,14.0234,14.1643,14.2082,14.2135,14.1797,14.2588,14.3049,14.1489,14.2489,14.339,14.3258,14.4006,14.4314,14.339,14.3313,14.3005,14.2258,14.2181,14.2258,14.2412,14.2895,14.3434,14.3621,14.328,14.3126,14.3082,14.1489,13.9896,13.8304,13.8304,13.7073,13.482,13.5589,13.5949,13.5666,13.6565,13.6488,13.5512,13.5616,13.5693,13.5743,13.7257,13.8002,13.8181,13.9003,13.9258,13.9204,13.8719,13.831,13.8079,13.7439,13.6669,13.6207,13.6977,13.6733,13.6197,13.7013,13.6703,13.6007,13.5429,13.5001,13.4495,13.3222,13.3222,13.3376,13.268,13.2525,13.2525,13.2525,13.3067,13.3454,13.2716,13.268,13.2835,13.2525,13.268,13.2603,13.1674,13.152,13.1288,13.0437,13.1173,13.2064,13.2915,13.3415,13.4616,13.6869,13.6718,13.7109,13.8593,13.8828,13.8906,13.8906,13.8906,13.9297,14.0312,14.1093,14.2031,14.289,14.3593,14.3984,14.3984,14.3984,14.3984,14.3984,14.3984,14.3984,8.8267,10.5408,12.1091,13.0923,13.5281,13.7411,13.8104,13.9388,14.021,13.9181,14.0104,14.0873,14.0588,14.0357,14.0357,14.095,14.0511,14.0511,14.1643,14.1335,14.1181,14.1797,14.1489,14.1412,14.1874,14.1819,14.2049,14.3005,14.2203,14.1896,14.2412,14.0357,13.8842,13.8073,13.7257,13.6103,13.5001,13.4924,13.5103,13.5512,13.5949,13.5589,13.482,13.5309,13.5463,13.5512,13.6334,13.6873,13.7411,13.831,13.8257,13.795,13.795,13.7849,13.7257,13.6488,13.6026,13.5719,13.5616,13.541,13.5095,13.5557,13.5172,13.468,13.4805,13.3918,13.2871,13.3067,13.2758,13.2293,13.2525,13.2525,13.2525,13.2525,13.2758,13.2912,13.2603,13.3222,13.3763,13.3299,13.2835,13.2216,13.1365,13.121,13.0901,12.9972,13.0282,13.0901,13.1829,13.2216,13.2812,13.4078,13.4906,13.5781,13.6562,13.7578,13.8437,13.8906,13.8906,13.9297,14.0234,14.1015,14.1875,14.2812,14.3593,14.3984,14.3984,14.3984,14.3984,14.3984,14.3984,14.3984,8.7949,10.1173,11.1937,12.2341,12.8233,13.1615,13.2436,13.518,13.731,13.5795,13.6694,13.7772,13.8334,13.8358,13.8588,13.9258,13.8127,13.7896,14.0027,13.9665,13.9819,14.1104,14.0719,14.0412,14.0927,14.0104,14.0181,14.1389,14.0335,13.995,14.0566,13.8742,13.7589,13.7127,13.5924,13.4975,13.4513,13.4205,13.4308,13.4949,13.5051,13.482,13.4051,13.4616,13.4924,13.4949,13.5051,13.5589,13.618,13.6873,13.6873,13.6488,13.718,13.7026,13.6411,13.5666,13.5051,13.4487,13.4385,13.4154,13.382,13.4282,13.3974,13.3615,13.4178,13.2912,13.1442,13.2721,13.1906,13.1015,13.1906,13.2139,13.2216,13.2371,13.2525,13.2525,13.2525,13.3299,13.3918,13.3531,13.268,13.1906,13.0978,13.1133,13.0823,12.9508,12.9586,13.0127,13.0823,13.0978,13.1363,13.2099,13.3512,13.4531,13.5,13.6406,13.75,13.8203,13.8437,13.8906,13.9531,14.0781,14.1797,14.25,14.3515,14.3984,14.3984,14.3984,14.3984,14.3984,14.3984,14.3906,7.5941,8.4133,9.2793,10.3717,11.3299,12.076,12.4004,12.9179,13.3077,13.2179,13.2641,13.3077,13.2256,13.6001,13.9286,13.9286,13.8594,13.8286,13.9209,13.9258,13.9281,13.9412,13.9388,13.9132,13.844,13.7516,13.7002,13.7103,13.7026,13.695,13.7079,13.6925,13.6078,13.4462,13.4436,13.3615,13.1872,13.2692,13.3077,13.3077,13.3974,13.3845,13.3076,13.3103,13.3077,13.323,13.3974,13.4435,13.4435,13.4512,13.4897,13.5589,13.5589,13.5589,13.5589,13.5512,13.4026,13.2102,13.3692,13.323,13.2102,13.3769,13.3769,13.3176,13.3405,13.2216,13.0901,13.1095,13.0359,12.9932,13.0783,13.1092,13.1247,13.2293,13.2525,13.2525,13.2525,13.1906,13.1597,13.2371,13.1906,13.0978,13.0127,13.0669,13.0359,12.7884,12.8889,12.9895,12.9972,13.005,13.1018,13.2838,13.3317,13.3906,13.4922,13.5781,13.6406,13.6406,13.7187,13.7734,13.7734,14.0234,14.1484,14.1562,14.3203,14.3984,14.3984,14.3984,14.3984,14.3984,14.3984,14.3593,7.3793,8.001,8.7147,9.7585,10.5177,11.1594,11.7192,12.3514,12.8486,12.9794,13.1152,13.2126,13.1768,13.2795,13.4026,13.5103,13.4103,13.4103,13.6515,13.6925,13.705,13.7642,13.7695,13.7439,13.6515,13.6078,13.6001,13.5949,13.5949,13.5949,13.6001,13.4924,13.4077,13.3461,13.2923,13.2256,13.1718,13.1949,13.241,13.3,13.3256,13.3333,13.3026,13.3,13.2692,13.2179,13.2487,13.3333,13.4308,13.4308,13.4103,13.4026,13.5103,13.482,13.4051,13.4487,13.3846,13.2538,13.2588,13.2153,13.1795,13.241,13.2538,13.2384,13.2426,13.1266,13.0201,13.1421,13.0669,12.9897,13.1363,13.1817,13.2139,13.3026,13.3258,13.3299,13.3299,13.2603,13.2061,13.2371,13.2216,13.1829,13.0901,13.0978,12.9972,12.6259,12.8116,12.9276,12.7729,12.9431,13.121,13.2179,13.2823,13.3522,13.4218,13.5,13.5937,13.7109,13.7422,13.789,13.8437,14.039,14.1484,14.1484,14.3125,14.3672,14.3203,14.3672,14.3672,14.3203,14.3828,14.3828,6.8004,7.2932,7.9269,8.9117,9.4821,10.0591,11.0781,11.7131,12.187,12.6178,12.8689,12.997,12.9998,12.9563,13.0102,13.2641,13.1821,13.1897,13.4693,13.5103,13.5334,13.5872,13.6001,13.5616,13.4693,13.4385,13.418,13.418,13.418,0.0,13.418,13.318,13.241,13.2179,13.1564,13.1179,13.0948,13.1179,13.1564,13.2179,13.241,13.2615,13.2615,13.2615,13.2179,13.1718,13.1718,13.241,13.3384,13.3384,13.3077,13.2692,13.4385,13.4103,13.2691,13.3923,13.3384,13.2153,13.1818,13.146,13.1333,13.1564,13.1795,13.1795,13.1487,13.0451,12.9557,13.0528,12.969,12.8997,13.0817,13.184,13.2525,13.3103,13.3258,13.3299,13.3299,13.2912,13.2525,13.2525,13.2293,13.1906,13.1288,13.121,13.0127,12.7033,12.8735,12.9663,12.7961,12.9818,13.1288,13.1674,13.2279,13.2801,13.3202,13.4297,13.5468,13.6718,13.7265,13.789,13.8437,14.039,14.1484,14.1484,14.3125,14.3593,14.2812,14.3593,14.3593,14.2812,14.3281,14.3593,0.0,0.0,0.0,7.7081,8.133,8.761,10.4287,10.9483,11.315,12.0869,12.4486,12.6409,12.6563,12.6717,12.8025,13.2102,13.2102,13.2179,13.3872,13.418,13.4334,13.418,13.418,13.3872,13.3026,13.2179,13.1718,13.1718,13.1718,13.1718,13.1718,13.1718,13.1333,13.0513,13.0513,13.0129,12.9206,12.9975,13.0513,13.0513,13.1333,13.1718,13.1718,13.1718,13.1718,13.1718,13.1718,13.1718,13.1718,13.1718,13.1718,13.1795,13.3561,13.3154,13.187,13.3692,13.2692,13.059,13.141,13.1179,13.059,13.141,13.1718,13.1487,13.0794,12.9898,12.9129,12.8382,12.7514,12.7183,12.9001,13.09,13.2293,13.2525,13.2525,13.2525,13.2525,13.2525,13.2525,13.2525,13.1829,13.121,13.1288,13.1288,13.0901,12.9972,13.0514,13.1133,13.1133,13.1133,13.121,13.152,13.1706,13.1865,13.2108,13.3906,13.5,13.5,13.6562,13.7578,13.7734,14.0078,14.1484,14.1484,14.3125,14.3593,14.2812,14.3593,14.3593,14.2812,14.2812,14.2812,5.8209,0.0,0.0,0.0,0.0,0.0,8.6632,9.2941,9.9827,11.056,11.533,11.9023,12.387,12.5794,12.7101,12.8256,12.9333,13.0333,13.141,13.2564,13.3103,13.2487,13.3026,13.3026,13.2102,13.1795,13.1718,0.0,13.1718,13.1718,13.1718,13.1102,13.0718,13.0487,12.9871,12.941,12.9179,12.941,12.9948,13.0513,13.0667,13.1102,13.1718,13.1718,13.1718,13.1718,13.1718,13.1718,13.1718,13.1718,13.141,13.1102,13.3407,13.3154,13.187,13.3692,13.3077,13.141,13.1564,13.1179,13.059,13.141,13.1333,13.0794,13.059,12.9871,12.9305,12.9739,12.9563,12.9744,13.1025,13.1794,13.2525,13.3067,13.3299,13.3299,13.3222,13.3299,13.3376,13.3376,13.268,13.2293,13.2912,13.2525,13.121,12.8502,12.827,12.8502,12.8502,12.8502,12.9508,13.2216,13.2525,13.2696,13.2966,13.3515,13.4375,13.5937,13.6406,13.75,13.9375,14.0234,14.1172,14.2422,14.289,14.2968,14.2812,14.3593,14.3593,14.2812,14.2812,14.2109,0.0,0.0,0.0,0.0,0.0,0.0,8.1847,8.6742,9.2556,10.4789,10.9713,11.3714,11.9792,12.1793,12.3024,12.4793,12.6794,12.8717,13.0333,13.1564,13.2256,13.1795,13.2102,13.2256,13.1718,13.1718,13.1718,13.1718,13.1718,13.1564,13.1179,13.1102,13.0487,12.941,12.9305,12.892,12.8179,12.8486,12.9102,12.9975,13.0282,13.0948,13.1718,13.1718,13.1718,13.1718,13.2102,13.1949,13.1718,13.2102,13.1333,13.0205,13.2819,13.2641,13.1409,13.2667,13.2795,13.223,13.1768,13.1383,13.1025,13.1179,13.1102,13.0794,12.9717,12.9613,12.9739,12.9536,12.9871,13.0667,13.1333,13.1794,13.2293,13.2758,13.3103,13.3216,13.2949,13.3686,13.4073,13.3763,13.3609,13.3609,13.3686,13.3609,13.268,13.0437,12.9663,12.9586,12.9972,12.9663,13.0282,13.2371,13.268,13.29,13.317,13.3718,13.4609,13.6172,13.7031,13.8203,14.0078,14.0937,14.1797,14.2812,14.3125,14.3281,14.3281,14.3828,14.3437,14.2265,14.2265,14.1484,0.0,0.0,0.0,0.0,0.0,0.0,8.2925,8.528,8.794,9.9865,10.4328,10.7713,11.3099,11.4407,11.5869,11.9485,12.3178,12.6717,12.9794,13.1025,13.1564,13.1564,13.1564,13.1564,13.1718,13.1564,13.1564,13.1718,13.1718,13.141,13.0718,13.1102,13.041,12.8102,12.8612,12.8228,12.6717,12.7409,12.8179,12.9102,12.9898,13.0794,13.1564,13.1718,13.1718,13.1564,13.2538,13.2256,13.1487,13.2487,13.1487,12.9539,13.1872,13.1897,13.0718,13.1409,13.2205,13.2692,13.1972,13.1587,13.1333,13.0794,13.1025,13.0948,12.8843,12.9354,13.0201,12.8744,12.9436,13.0667,13.0667,13.144,13.2056,13.2056,13.2281,13.2392,13.233,13.3567,13.4537,13.3841,13.4537,13.4924,13.4073,13.4537,13.4614,13.3686,13.2603,13.2293,13.3376,13.2603,13.2061,13.2525,13.268,13.2758,13.299,13.3986,13.5233,13.6328,13.7968,13.9375,14.039,14.1797,14.2578,14.2812,14.3437,14.3828,14.3906,14.3906,14.3125,14.1484,14.1406,14.0937,0.0,0.0,0.0,0.0,0.0,0.0,6.9655,7.2168,7.6784,8.3401,8.6786,9.071,9.7865,10.1404,10.3097,10.2481,11.1483,12.0793,12.7486,12.9794,13.0718,13.0718,13.0718,13.1025,13.1564,13.1102,13.1025,13.1718,13.1718,13.1564,13.1487,13.0333,12.9487,12.9025,12.7794,12.6948,12.6717,12.6871,12.7332,12.8179,12.9025,12.9871,13.0794,13.141,13.1333,13.0794,13.1564,13.1128,12.9795,13.1282,13.1282,13.041,13.146,13.1818,13.146,13.1615,13.1769,13.1872,13.1845,13.0794,12.9898,13.1102,13.0691,12.969,12.9871,13.0229,13.0586,13.0871,13.1179,13.1487,13.1564,13.1818,13.1867,13.1867,13.2117,13.2211,13.2083,13.2512,13.3019,13.3609,13.5001,13.6007,13.5775,13.4769,13.3686,13.2912,13.0282,12.9431,13.2371,13.0204,12.9431,13.2216,13.2525,13.2603,13.2758,13.3786,13.5208,13.7031,13.8203,13.9922,14.2187,14.1328,14.1406,14.2812,14.2265,14.2265,14.2968,14.2968,14.25,14.1484,14.0781,14.0,0.0,0.0,0.0,7.0401,0.0,0.0,0.0,7.0656,7.3322,7.9708,8.0708,8.2785,9.0479,9.2556,9.3787,9.5942,10.4789,11.2791,11.6638,12.4486,12.9717,12.9333,12.9563,13.0025,13.041,13.0487,13.0794,13.1564,13.1718,13.1487,13.1102,13.0718,13.0102,12.9179,12.8409,12.7717,12.7332,12.6871,12.7332,12.864,12.9025,12.9871,13.1102,13.1487,13.1487,13.1102,13.1487,13.0975,12.9924,13.0794,13.041,12.9283,13.0075,13.0509,13.0509,13.0513,13.0975,13.1564,13.1179,13.0794,13.0359,13.0537,13.0537,13.0383,12.9975,13.0179,13.0691,13.1487,13.1718,13.1718,13.1795,13.1795,13.1872,13.1795,13.2021,13.2088,13.2116,13.2855,13.3715,13.4186,13.5388,13.6007,13.5233,13.5001,13.4614,13.3299,13.1597,13.121,13.2912,13.1288,13.0591,13.2293,13.2525,13.2603,13.2758,13.3754,13.5018,13.6561,13.8515,14.0312,14.2109,14.1718,14.1718,14.2109,14.2109,14.2422,14.2812,14.2812,14.2578,14.2109,14.1328,14.0625,0.0,0.0,0.0,0.0,0.0,7.1552,0.0,0.0,0.0,7.7784,7.6861,7.7015,8.3401,8.3555,8.4247,8.9094,9.6942,10.2404,10.2327,11.4638,12.4024,12.5101,12.664,12.764,12.8025,12.8025,12.8871,13.1102,13.0025,12.9563,13.0487,13.1025,13.0718,12.9487,12.9102,12.864,12.7871,12.7101,12.7486,12.9025,12.9102,13.0025,13.1487,13.1487,13.141,13.1179,13.1179,13.0718,12.9794,12.9844,12.9123,12.7843,12.8612,12.9123,12.9151,12.9025,13.0052,13.1564,13.0794,13.0871,13.1306,13.0075,13.0614,13.141,13.0129,13.0205,13.0948,13.1487,13.1718,13.1718,13.1718,13.1795,13.1795,13.1718,13.1895,13.1963,13.2148,13.3197,13.4289,13.4495,13.5156,13.5233,13.4073,13.5078,13.562,13.4227,13.4073,13.4073,13.3995,13.3376,13.2912,13.2525,13.2525,13.2603,13.2912,13.3881,13.499,13.6307,13.8826,14.0703,14.1718,14.2422,14.2422,14.1484,14.2187,14.2578,14.2812,14.2812,14.2734,14.25,14.1797,14.1328,0.0,0.0,0.0,0.0,7.7784,0.0,0.0,0.0,7.009,6.7167,0.0,6.7705,6.9244,0.0,0.0,7.1321,8.1016,8.8171,8.7478,9.6634,10.6405,11.4638,11.9023,12.187,12.3485,12.1023,12.21,12.9025,12.387,12.3408,13.0102,12.9871,12.9794,13.0333,12.8871,12.8025,12.7871,12.7101,12.7178,12.8102,12.8794,12.9717,13.0564,13.0564,13.0179,12.9513,12.9513,12.859,12.7178,12.792,12.7689,12.6871,12.7689,12.8459,12.9123,12.8305,12.9563,13.1564,13.0794,13.0614,13.074,13.1229,13.1487,13.1718,13.1487,13.1487,13.1564,13.1718,13.1718,13.1718,13.1718,13.1718,13.1718,13.1718,13.1718,13.1768,13.1915,13.2211,13.238,13.259,13.2752,13.3299,13.4614,13.5001,13.5078,13.4924,13.5543,13.5697,13.5001,13.4769,13.4073,13.268,13.2525,13.2835,13.3531,13.4113,13.5417,13.777,13.942,14.0937,14.2578,14.2734,14.2422,14.1484,14.1562,14.2031,14.2812,14.2812,14.2422,14.1562,14.1484,14.0703,0.0,0.0,0.0,0.0,0.0,0.0,7.0706,0.0,6.7321,0.0,0.0,0.0,0.0,0.0,0.0,0.0,7.5476,8.0554,7.9169,8.6094,9.4941,10.4789,10.7482,11.0021,11.3714,11.4099,11.6484,12.2177,12.0408,12.1562,12.7178,12.8563,12.941,12.9717,12.8486,12.7717,12.7178,12.6871,12.6871,12.7178,12.8025,12.8871,12.9717,12.9717,12.9487,12.9179,12.8717,12.8025,12.7458,12.7304,12.6948,12.6717,12.7101,12.7458,12.7843,12.7948,12.8871,13.0229,12.9898,13.041,13.1306,13.1564,13.1718,13.1718,13.1718,13.1718,13.1718,13.1718,13.1718,13.1718,13.1718,13.1718,13.1718,13.1718,13.1718,13.1691,13.1867,13.201,13.2071,13.2314,13.2366,13.268,13.3376,13.3918,13.4073,13.3609,13.4305,13.4537,13.3686,13.3531,13.3531,13.3222,13.2835,13.299,13.4305,13.4692,13.5693,13.7399,13.9725,14.1718,14.3437,14.3515,14.3125,14.2265,14.2734,14.289,14.2812,14.3281,14.3125,14.2265,14.2265,14.1875,8.594,0.0,0.0,0.0,0.0,0.0,0.0,0.0,0.0,0.0,0.0,0.0,0.0,0.0,0.0,0.0,0.0,7.5014,7.3553,7.74,8.417,9.4326,9.7403,10.0404,10.4789,10.5328,10.8175,11.5176,11.4407,11.6792,12.4332,12.6717,12.8102,12.8794,12.8179,12.7486,12.6717,12.6717,12.6717,12.6717,12.7486,12.8179,12.8794,12.8794,12.8717,12.8486,12.8151,12.792,12.792,12.7304,12.6948,12.6948,12.6948,12.6948,12.7101,12.7668,12.8563,12.9585,12.964,13.0513,13.1718,13.1718,13.1718,13.1718,13.1718,13.1718,13.1718,13.141,13.1487,13.1564,13.141,13.1487,13.1718,13.1718,13.1718,13.1691,13.1741,13.1963,13.2103,13.2193,13.2401,13.2484,13.2525,13.3222,13.3609,13.3222,13.3918,13.4073,13.3299,13.3222,13.3299,13.3686,13.3222,13.3531,13.5233,13.5311,13.5995,13.7701,14.0291,14.25,14.4297,14.4062,14.3828,14.3515,14.3828,14.3672,14.3125,14.3672,14.3593,14.2812,14.2812,14.25,0.0,0.0,0.0,8.2477,0.0,0.0,0.0,0.0,7.2552,0.0,0.0,0.0,0.0,0.0,0.0,0.0,0.0,0.0,0.0,6.9321,7.2706,8.2939,9.0633,9.6172,9.8788,9.3249,9.5249,10.9406,10.3558,10.6328,12.21,12.3793,12.5409,12.7871,12.7871,12.7486,12.6717,12.6717,12.6717,12.6717,12.7486,12.7871,12.7948,12.7948,12.7486,12.6822,12.7563,12.792,12.792,12.792,12.792,12.792,12.792,12.792,12.792,12.792,12.8997,13.0509,13.0487,13.1025,13.1718,13.1718,13.1718,13.1718,13.1718,13.1718,13.1487,13.0794,13.1102,13.1487,13.0718,13.1102,13.1718,13.1718,13.1718,13.1718,13.1718,13.1818,13.1886,13.2103,13.2193,13.2323,13.2525,13.3222,13.3995,13.4769,13.5697,13.5929,13.5001,13.4924,13.4614,13.3763,13.3686,13.4382,13.6084,13.5697,13.6575,13.9526,14.1406,14.3203,14.5234,14.4375,14.4375,14.5234,14.4375,14.3984,14.3984,14.3984,14.3593,14.2812,14.2812,14.1875,0.0,0.0,9.6711,8.7863,0.0,0.0,0.0,0.0,0.0,0.0,0.0,0.0,0.0,0.0,0.0,0.0,0.0,6.9244,0.0,6.609,6.7398,7.1398,7.8631,8.3632,8.4478,8.5016,8.8709,9.7019,9.6788,10.1866,11.4714,11.7715,12.0793,12.4486,12.5101,12.5332,12.5024,12.5024,12.5332,12.5794,12.5486,12.5717,12.6178,12.564,12.564,12.5947,12.6101,12.664,12.7052,12.7129,12.7129,12.7178,12.7689,12.7871,12.7975,12.8514,12.9487,13.0564,13.1102,13.1487,13.1718,13.1718,13.1718,13.1564,13.1102,13.0871,13.0794,13.0564,13.0718,13.1025,13.1179,13.1487,13.1718,13.1718,13.1718,13.1718,13.1718,13.1433,13.1192,13.2026,13.1653,13.1705,13.2448,13.268,13.299,13.3299,13.3609,13.3686,13.3376,13.3763,13.3995,13.3686,13.4227,13.5233,13.6935,13.8096,13.9113,14.0084,14.1007,14.2422,14.4218,14.4062,14.4375,14.5312,14.5,14.4609,14.3984,14.3984,14.3906,14.3593,14.2968,14.1875,10.5097,10.4328,0.0,9.4557,9.0171,0.0,7.8015,0.0,0.0,0.0,0.0,0.0,0.0,0.0,0.0,0.0,0.0,6.8321,0.0,6.4243,6.4782,6.5397,7.1091,7.5245,7.5861,7.7323,8.1323,8.8786,9.0094,9.5557,10.7175,11.2483,11.6715,12.01,12.2716,12.4101,12.4101,12.4101,12.4409,12.487,12.4716,12.4486,12.4486,12.4486,12.4486,12.4562,12.5486,12.6206,12.6668,12.7052,12.7129,12.7178,12.7689,12.8102,12.8463,12.9283,13.0205,13.1025,13.1513,13.1718,13.1795,13.2102,13.2025,13.1487,13.0718,13.0487,13.041,13.0102,13.0256,13.0564,13.1102,13.1487,13.1718,13.1718,13.1718,13.1718,13.1718,13.1075,13.0789,13.1394,13.1222,13.1122,13.1824,13.2293,13.2525,13.2525,13.2525,13.2525,13.2525,13.299,13.3609,13.4537,13.5078,13.6007,13.7399,13.8869,13.9875,14.003,14.1232,14.2569,14.4062,14.4062,14.4375,14.5312,14.5,14.4609,14.3984,14.3984,14.3906,14.3593,14.3281,14.2265]},{"header":{"parameterUnit":"m.s-1","parameterCategory":1,"la1":30.6,"la2":29.2853,"lo1":-89.7004,"lo2":-87.6739,"dy":0.0162,"dx":0.0183,"nx":112,"ny":82,"refTime":"2025-11-05T12:00:00:Z","depth":0,"parameterNumber":3,"parameterNumberName":"V-component_of_WINDS"},"data":[0.0,0.0,0.0,0.0,0.0,0.0,0.0,0.0,0.0,0.0,0.0,0.0,0.0,0.0,0.0,0.0,0.0,0.0,0.0,0.0,0.0,0.0,0.0,0.0,0.0,0.0,0.0,0.0,0.0,0.0,0.0,0.0,0.0,0.0,0.0,0.0,0.0,0.0,0.0,0.0,0.0,0.0,0.0,0.0,0.0,0.0,0.0,0.0,0.0,0.0,0.0,0.0,0.0,0.0,0.0,0.0,0.0,0.0,0.0,0.0,0.0,0.0,0.0,0.0,0.0,0.0,0.0,0.0,0.0,0.0,0.0,0.0,0.0,0.0,0.0,0.0,0.0,0.0,0.0,0.0,0.0,0.0,0.0,0.0,0.0,0.0,0.0,0.0,0.0,0.0,0.0,-0.9662,-0.3972,0.0,0.0,0.0,-0.0398,-0.1231,0.0,0.0,0.0,0.0,0.0,0.0,0.0,0.0,0.0,0.0,0.0,0.0,0.0,0.0,0.0,0.0,0.0,0.0,0.0,0.0,0.0,0.0,0.0,0.0,0.0,0.0,0.0,0.0,0.0,0.0,0.0,0.0,0.0,0.0,0.0,0.0,0.0,0.0,0.0,0.0,0.0,0.0,0.0,0.0,0.0,0.0,0.0,0.0,0.0,0.0,0.0,0.0,0.0,0.0,0.0,0.0,0.0,0.0,0.0,0.0,0.0,0.0,0.0,0.0,0.0,0.0,0.0,0.0,0.0,0.0,0.0,0.0,0.0,0.0,0.0,0.0,0.0,0.0,0.0,0.0,0.0,0.0,0.0,0.0,0.0,0.0,0.0,0.0,0.0,0.0,0.0,0.0,0.0,0.0,0.0,0.0,0.0,0.0,0.0,0.0,0.0,0.0,0.0,0.0,-0.4713,-0.2091,-0.0648,0.0,0.0,0.0,-0.0392,-0.1078,0.0,0.0,0.0,0.0,0.0,0.0,0.0,0.0,0.0,0.0,0.0,0.0,0.0,0.0,0.0,0.0,0.0,0.0,0.0,0.0,0.0,0.0,0.0,0.0,0.0,0.0,0.0,0.0,0.0,0.0,0.0,0.0,0.0,0.0,0.0,0.0,0.0,0.0,0.0,0.0,0.0,0.0,0.0,0.0,0.0,0.0,0.0,0.0,0.0,0.0,0.0,0.0,0.0,0.0,0.0,0.0,0.0,0.0,0.0,0.0,0.0,0.0,0.0,0.0,0.0,0.0,0.0,0.0,0.0,0.0,0.0,0.0,0.0,0.0,0.0,0.0,0.0,0.0,0.0,0.0,0.0,0.0,0.0,0.0,0.0,0.0,0.0,0.0,0.0,0.0,0.0,0.0,0.0,0.0,0.0,0.0,0.0,0.0,0.0,0.0,0.0,0.0,0.0,-0.2143,-0.1741,-0.0217,0.0,0.0,0.0,0.0,-0.0196,-0.0533,-0.165,0.0,0.0,0.0,0.0,0.0,0.0,0.0,0.0,0.0,0.0,0.0,0.0,0.0,0.0,0.0,0.0,0.0,0.0,0.0,0.0,0.0,0.0,0.0,0.0,0.0,0.0,0.0,0.0,0.0,0.0,0.0,0.0,0.0,0.0,0.0,0.0,0.0,0.0,0.0,0.0,0.0,0.0,0.0,0.0,0.0,0.0,0.0,0.0,0.0,0.0,0.0,0.0,0.0,0.0,0.0,0.0,0.0,0.0,0.0,0.0,0.0,0.0,0.0,0.0,0.0,0.0,0.0,0.0,0.0,0.0,0.0,0.0,0.0,0.0,0.0,0.0,0.0,0.0,0.0,0.0,0.0,0.0,0.0,0.0,0.0,0.0,0.0,0.0,0.0,0.0,0.0,0.0,0.0,0.0,0.0,0.0,0.0,0.0,0.0,0.0,0.0,0.0,-0.0986,0.0,0.0,0.0,0.0,0.0,0.0,0.0,0.0,-0.1113,0.0,0.0,0.0,0.0,0.0,0.0,0.0,0.0,0.0,0.0,0.0,0.0,0.0,0.0,0.0,0.0,0.0,0.0,0.0,0.0,0.0,0.0,0.0,0.0,0.0,0.0,0.0,0.0,0.0,0.0,0.0,0.0,0.0,0.0,0.0,0.0,0.0,0.0,0.0,0.0,0.0,0.0,0.0,0.0,0.0,0.0,0.0,0.0,0.0,0.0,0.0,0.0,0.0,0.0,0.0,0.0,0.0,0.0,0.0,0.0,0.0,0.0,0.0,0.0,0.0,0.0,0.0,0.0,0.0,0.0,0.0,0.0,0.0,0.0,0.0,0.0,0.0,0.0,0.0,0.0,0.0,0.0,0.0,0.0,0.0,0.0,0.0,0.0,0.0,0.0,0.0,0.0,0.0,0.0,0.0,0.0,0.0,0.0,0.0,0.0,0.0,0.0,-0.3595,0.0,0.0,0.0,0.0,0.0,0.0,0.0,0.0,-0.0152,0.0,0.0,0.0,0.0,0.0,0.0,0.0,0.0,0.0,0.0,0.0,0.0,0.0,0.0,0.0,0.0,0.0,0.0,0.0,0.0,0.0,0.0,0.0,0.0,0.0,0.0,0.0,0.0,0.0,0.0,0.0,0.0,0.0,0.0,0.0,0.0,0.0,0.0,0.0,0.0,0.0,0.0,0.0,0.0,0.0,0.0,0.0,0.0,0.0,0.0,0.0,0.0,0.0,0.0,0.0,0.0,0.0,0.0,0.0,0.0,0.0,0.0,0.0,0.0,0.0,0.0,0.0,0.0,0.0,0.0,0.0,0.0,0.0,0.0,0.0,0.0,0.0,0.0,0.0,0.0,0.0,0.0,0.0,0.0,0.0,0.0,0.0,0.0,0.0,0.0,0.0,0.0,0.0,0.0,0.0,0.0,0.0,0.0,0.0,0.0,0.0,0.0,-0.1391,0.0,0.0,0.0,0.0,0.0,0.0,0.0,0.0,0.0,0.0,0.0,0.0,0.0,0.0,0.0,0.0,0.0,0.0,0.0,0.0,0.0,0.0,0.0,0.0,0.0,0.0,0.0,0.0,0.0,0.0,0.0,0.0,0.0,0.0,0.0,0.0,0.0,0.0,0.0,0.0,0.0,0.0,0.0,0.0,0.0,0.0,0.0,0.0,0.0,0.0,0.0,0.0,0.0,0.0,0.0,0.0,0.0,0.0,0.0,0.0,0.0,0.0,0.0,0.0,0.0,0.0,0.0,0.0,0.0,0.0,0.0,0.0,0.0,0.0,0.0,0.0,0.0,0.0,0.0,0.0,0.0,0.0,0.0,0.0,0.0,0.0,0.0,0.0,0.0,0.0,0.0,0.0,0.0,0.0,0.0,0.0,0.0,0.0,0.0,0.0,0.0,0.0,0.0,0.0,0.0,0.0,0.0,0.0,0.0,0.0,-0.0556,0.0,0.0,0.0,0.0,0.0,0.0,0.0,0.0,0.0,0.0,0.0,0.0,0.0,0.0,0.0,0.0,0.0,0.0,0.0,0.0,0.0,0.0,0.0,0.0,0.0,0.0,0.0,0.0,0.0,0.0,0.0,0.0,0.0,0.0,0.0,0.0,0.0,0.0,0.0,0.0,0.0,0.0,0.0,0.0,0.0,0.0,0.0,0.0,0.0,0.0,0.0,0.0,0.0,0.0,0.0,0.0,0.0,0.0,0.0,0.0,0.0,0.0,0.0,0.0,0.0,0.0,0.0,0.0,0.0,0.0,0.0,0.0,0.0,0.0,0.0,0.0,0.0,0.0,0.0,0.0,0.0,0.0,0.0,0.0,0.0,0.0,0.0,0.0,0.0,0.0,0.0,0.0,0.0,0.0,0.0,0.0,0.0,0.0,0.0,0.0,0.0,0.0,0.0,0.0,0.0,0.0,0.0,0.0,0.0,0.0,0.0,0.0,0.0,0.0,0.0,0.0,0.0,0.0,0.0,0.0,0.0,0.0,0.0,0.0,0.0,0.0,0.0,0.0,0.0,0.0,0.0,0.0,0.0,0.0,0.0,0.0,0.0,0.0,0.0,0.0,0.0,0.0,0.0,0.0,0.0,0.0,0.0,0.0,0.0,0.0,0.0,0.0,0.0,0.0,0.0,0.0,0.0,0.0,0.0,0.0,0.0,0.0,0.0,0.0,0.0,0.0,0.0,0.0,0.0,0.0,0.0,0.0,0.0,0.0,0.0,0.0,0.0,0.0,0.0,0.0,0.0,0.0,0.0,0.0,0.0,0.0,0.0,0.0,0.0,0.0,0.0,0.0,0.0,0.0,0.0,0.0,0.0,0.0,0.0,0.0,0.0,0.0,0.0,0.0,0.0,0.0,0.0,0.0,0.0,0.0,0.0,0.0,0.0,0.0,0.0,0.0,0.0,0.0,0.0,0.0,0.0,0.0,0.0,0.0,0.0,0.0,0.0,0.0,0.0,0.0,0.0,0.0,0.0,0.0,0.0,0.0,0.0,0.0,0.0,0.0,0.0,0.0,0.0,0.0,0.0,0.0,0.0,0.0,0.0,0.0,0.0,0.0,0.0,0.0,0.0,0.0,0.0,0.0,0.0,0.0,0.0,0.0,0.0,0.0,0.0,0.0,0.0,0.0,0.0,0.0,0.0,0.0,0.0,0.0,0.0,0.0,0.0,0.0,0.0,0.0,0.0,0.0,0.0,0.0,0.0,0.0,0.0,0.0,0.0,0.0,0.0,0.0,0.0,0.0,0.0,0.0,0.0,0.0,0.0,0.0,0.0,0.0,0.0,0.0,0.0,0.0,0.0,0.0,0.0,0.0,0.0,0.0,0.0,0.0,0.0,0.0,0.0,0.0,0.0,0.0,0.0,0.0,0.0,0.0,0.0,0.0,0.0,0.0,0.0,0.0,0.0,0.0,0.0,0.0,0.0,0.0,0.0,0.0,0.0,0.0,0.0,0.0,0.0,0.0,0.0,0.0,0.0,0.0,0.0,0.0,0.0,0.0,0.0,0.0,0.0,0.0,0.0,0.0,0.0,0.0,0.0,0.0,0.0,0.0,0.0,0.0,0.0,0.0,0.0,0.0,0.0,0.0,0.0,0.0,0.0,0.0,0.0,0.0,0.0,0.0,0.0,0.0,0.0,0.0,0.0,0.0,0.0,0.0,0.0,0.0,0.0,0.0,0.0,0.0,0.0,0.0,0.0,0.0,0.0,0.0,0.0,0.0,0.0,0.0,0.0,0.0,0.0,0.0,0.0,0.0,0.0,0.0,0.0,0.0,0.0,0.0,0.0,0.0,0.0,0.0,0.0,0.0,0.0,0.0,0.0,0.0,0.0,0.0,0.0,0.0,0.0,0.0,0.0,0.0,0.0,0.0,0.0,0.0,0.0,0.0,0.0,0.0,0.0,0.0,0.0,0.0,0.0,0.0,0.0,0.0,0.0,0.0,0.0,0.0,0.0,0.0,0.0,0.0,0.0,0.0,0.0,0.0,0.0,0.0,0.0,0.0,0.0,0.0,0.0,0.0,0.0,0.0,0.0,0.0,0.0,0.0,0.0,0.0,0.0,0.0,0.0,0.0,0.0,0.0,0.0,0.0,0.0,0.0,0.0,0.0,0.0,0.0,0.0,0.0,0.0,0.0,0.0,0.0,0.0,0.0,0.0,0.0,0.0,0.0,0.0,0.0,0.0,0.0,0.0,0.0,0.0,0.0,0.0,0.0,0.0,0.0,0.0,0.0,0.0,0.0,0.0,0.0,0.0,0.0,0.0,0.0,0.0,0.0,0.0,0.0,0.0,0.0,0.0,0.0,0.0,0.0,0.0,0.0,0.0,0.0,0.0,0.0,0.0,0.0,0.0,0.0,0.0,0.0,0.0,0.0,0.0,0.0,0.0,0.0,0.0,0.0,0.0,0.0,0.0,0.0,0.0,0.0,0.0,0.0,0.0,0.0,0.0,0.0,0.0,0.0,0.0,0.0,0.0,0.0,0.0,0.0,0.0,0.0,0.0,0.0,0.0,0.0,0.0,0.0,0.0,0.0,0.0,0.0,0.0,0.0,0.0,0.0,0.0,0.0,0.0,0.0,0.0,0.0,0.0,0.0,0.0,0.0,0.0,0.0,0.0,0.0,0.0,0.0,0.0,0.0,0.0,0.0,0.0,0.0,0.0,0.0,0.0,0.0,0.0,0.0,0.0,0.0,0.0,0.0,0.0,0.0,0.0,0.0,0.0,0.0,0.0,0.0,0.0,0.0,0.0,0.0,0.0,0.0,0.0,0.0,0.0,0.0,0.0,0.0,0.0,0.0,0.0,0.0,0.0,0.0,0.0,0.0,0.0,0.0,0.0,0.0,0.0,0.0,0.0,0.0,0.0,0.0,0.0,0.0,0.0,0.0,0.0,0.0,0.0,0.0,0.0,0.0,0.0,0.0,0.0,0.0,0.0,0.0,0.0,0.0,0.0,0.0,0.0,0.0,0.0,0.0,0.0,0.0,0.0,0.0,0.0,0.0,0.0,0.0,0.0,0.0,0.0,0.0,0.0,0.0,0.0,0.0,0.0,0.0,0.0,0.0,0.0,0.0,0.0,0.0,0.0,0.0,0.0,0.0,0.0,0.0,0.0,0.0,0.0,0.0,0.0,0.0,0.0,0.0,0.0,0.0,0.0,0.0,0.0,0.0,0.0,0.0,0.0,0.0,0.0,0.0,0.0,0.0,0.0,0.0,0.0,0.0,0.0,0.0,0.0,0.0,0.0,0.0,0.0,0.0,0.0,0.0,0.0,0.0,0.0,0.0,0.0,0.0,0.0,0.0,0.0,0.0,0.0,0.0,0.0,0.0,0.0,0.0,0.0,0.0,0.0,0.0,0.0,0.0,0.0,0.0,0.0,0.0,0.0,0.0,0.0,0.0,0.0,0.0,0.0,0.0,0.0,0.0,0.0,0.0,0.0,0.0,0.0,0.0,0.0,0.0,0.0,0.0,0.0,0.0,0.0,0.0,0.0,0.0,0.0,0.0,0.0,0.0,0.0,0.0,0.0,0.0,0.0,0.0,0.0,0.0,0.0,0.0,0.0,0.0,0.0,0.0,0.0,0.0,0.0,0.0,0.0,0.0,0.0,0.0,0.0,0.0,0.0,0.0,0.0,0.0,0.0,0.0,0.0,0.0,0.0,0.0,0.0,0.0,0.0,0.0,0.0,0.0,0.0,0.0,0.0,0.0,0.0,0.0,0.0,0.0,0.0,0.0,0.0,0.0,0.0,0.0,0.0,0.0,0.0,0.0,0.0,0.0,0.0,0.0,0.0,0.0,0.0,0.0,0.0,0.0,0.0,0.0,0.0,0.0,0.0,0.0,0.0,0.0,0.0,0.0,0.0,0.0,0.0,0.0,0.0,0.0,0.0,0.0,0.0,0.0,0.0,0.0,0.0,0.0,0.0,0.0,0.0,0.0,0.0,0.0,0.0,0.0,0.0,0.0,0.0,0.0,0.0,0.0,0.0,0.0,0.0,0.0,0.0,0.0,0.0,0.0,0.0,0.0,0.0,0.0,0.0,0.0,0.0,0.0,0.0,0.0,0.0,0.0,0.0,0.0,0.0,0.0,0.0,0.0,0.0,0.0,0.0,0.0,0.0,0.0,0.0,0.0,0.0,0.0,0.0,0.0,0.0,0.0,0.0,0.0,0.0,0.0,0.0,0.0,0.0,0.0,0.0,0.0,0.0,0.0,0.0,0.0,0.0,0.0,0.0,0.0,0.0,0.0,0.0,0.0,0.0,0.0,0.0,0.0,0.0,0.0,0.0,0.0,0.0,0.0,0.0,0.0,0.0,0.0,0.0,0.0,0.0,0.0,0.0,0.0,0.0,0.0,0.0,0.0,0.0,0.0,0.0,0.0,0.0,0.0,0.0,0.0,0.0,0.0,0.0,0.0,0.0,0.0,0.0,0.0,0.0,0.0,0.0,0.0,0.0,0.0,0.0,0.0,0.0,0.0,0.0,0.0,0.0,0.0,0.0,0.0,0.0,0.0,0.0,0.0,0.0,0.0,0.0,0.0,0.0,0.0,0.0,0.0,0.0,0.0,0.0,0.0,0.0,0.0,0.0,0.0,0.0,0.0,0.0,0.0,0.0,0.0,0.0,0.0,0.0,0.0,0.0,0.0,0.0,0.0,0.0,0.0,0.0,0.0,0.0,0.0,0.0,0.0,0.0,0.0,0.0,0.0,0.0,0.0,0.0,0.0,0.0,0.0,0.0,0.0,0.0,0.0,0.0,0.0,0.0,0.0,0.0,0.0,0.0,0.0,0.0,0.0,0.0,0.0,0.0,0.0,0.0,0.0,0.0,0.0,0.0,0.0,0.0,0.0,0.0,0.0,0.0,0.0,0.0,0.0,0.0,0.0,0.0,0.0,0.0,0.0,0.0,0.0,0.0,0.0,0.0,0.0,0.0,0.0,0.0,0.0,0.0,0.0,0.0,0.0,0.0,0.0,0.0,0.0,0.0,0.0,0.0,0.0,0.0,0.0,0.0,0.0,0.0,0.0,0.0,0.0,0.0,0.0,0.0,0.0,0.0,0.0,0.0,0.0,0.0,0.0,0.0,0.0,0.0,0.0,0.0,0.0,0.0,0.0,0.0,0.0,0.0,0.0,0.0,0.0,0.0,0.0,0.0,0.0,0.0,0.0,0.0,0.0,0.0,0.0,0.0,0.0,0.0,0.0,0.0,0.0,0.0,0.0,0.0,0.0,0.0,0.0,0.0,0.0,0.0,0.0,0.0,0.0,0.0,0.0,0.0,0.0,0.0,0.0,0.0,0.0,0.0,0.0,0.0,0.0,0.0,0.0,0.0,0.0,0.0,0.0,0.0,0.0,0.0,0.0,0.0,0.0,0.0,0.0,0.0,0.0,0.0,0.0,0.0,0.0,0.0,0.0,0.0,0.0,0.0,0.0,0.0,0.0,0.0,0.0,0.0,0.0,0.0,0.0,0.0,0.0,0.0,0.0,0.0,0.0,0.0,0.0,0.0,0.0,0.0,0.0,0.0,0.0,0.0,0.0,0.0,0.0,0.0,0.0,0.0,0.0,0.0,0.0,0.0,0.0,0.0,0.0,0.0,0.0,0.0,0.0,0.0,0.0,0.0,0.0,0.0,0.0,0.0,0.0,0.0,0.0,0.0,0.0,0.0,0.0,0.0,0.0,0.0,0.0,0.0,0.0,0.0,0.0,0.0,0.0,0.0,0.0,0.0,0.0,0.0,0.0,0.0,0.0,0.0,0.0,0.0,0.0,0.0,0.0,0.0,0.0,0.0,0.0,0.0,0.0,0.0,0.0,0.0,0.0,0.0,0.0,0.0,0.0,0.0,0.0,0.0,0.0,0.0,0.0,0.0,0.0,0.0,0.0,0.0,0.0,0.0,0.0,0.0,0.0,0.0,0.0,0.0,0.0,0.0,0.0,0.0,0.0,0.0,0.0,0.0,0.0,0.0,0.0,0.0,0.0,0.0,0.0,0.0,0.0,0.0,0.0,0.0,0.0,0.0,0.0,0.0,0.0,0.0,0.0,0.0,0.0,0.0,0.0,0.0,0.0,0.0,0.0,0.0,0.0,0.0,0.0,0.0,0.0,0.0,0.0,0.0,0.0,0.0,0.0,0.0,0.0,0.0,0.0,0.0,0.0,0.0,0.0,0.0,0.0,0.0,0.0,0.0,0.0,0.0,0.0,0.0,0.0,0.0,0.0,0.0,0.0,0.0,0.0,0.0,0.0,0.0,0.0,0.0,0.0,0.0,0.0,0.0,0.0,0.0,0.0,0.0,0.0,0.0,0.0,0.0,0.0,0.0,0.0,0.0,0.0,0.0,0.0,0.0,0.0,0.0,0.0,0.0,0.0,0.0,0.0,0.0,0.0,0.0,0.0,0.0,0.0,0.0,0.0,0.0,0.0,0.0,0.0,0.0,0.0,0.0,0.0,0.0,0.0,0.0,0.0,0.0,0.0,0.0,0.0,0.0,0.0,0.0,0.0,0.0,0.0,0.0,0.0,0.0,0.0,0.0,0.0,0.0,0.0,0.0,0.0,0.0,0.0,0.0,0.0,0.0,0.0,0.0,0.0,0.0,0.0,0.0,0.0,0.0,0.0,0.0,0.0,0.0,0.0,0.0,0.0,0.0,0.0,0.0,0.0,0.0,0.0,0.0,0.0,0.0,0.0,0.0,0.0,0.0,0.0,0.0,0.0,0.0,0.0,0.0,0.0,0.0,0.0,0.0,0.0,0.0,0.0,0.0,0.0,0.0,0.0,0.0,0.0,0.0,0.0,0.0,0.0,0.0,0.0,0.0,0.0,0.0,0.0,0.0,0.0,0.0,0.0,0.0,0.0,0.0,0.0,0.0,0.0,0.0,0.0,0.0,0.0,0.0,0.0,0.0,0.0,0.0,0.0,0.0,0.0,0.0,0.0,0.0,0.0,0.0,0.0,0.0,0.0,0.0,0.0,0.0,0.0,0.0,0.0,0.0,0.0,0.0,0.0,0.0,0.0,0.0,0.0,0.0,0.0,0.0,0.0,0.0,0.0,0.0,0.0,0.0,0.0,0.0,0.0,0.0,0.0,0.0,0.0,0.0,0.0,0.0,0.0,0.0,0.0,0.0,0.0,0.0,0.0,0.0,0.0,0.0,0.0,0.0,0.0,0.0,0.0,0.0,0.0,0.0,0.0,0.0,0.0,0.0,0.0,0.0,0.0,0.0,0.0,0.0,0.0,0.0,0.0,0.0,0.0,0.0,0.0,0.0,0.0,0.0,0.0,0.0,0.0,0.0,0.0,0.0,0.0,0.0,0.0,0.0,0.0,0.0,0.0,0.0,0.0,0.0,0.0,0.0,0.0,0.0,0.0,0.0,0.0,0.0,0.0,0.0,0.0,0.0,0.0,0.0,0.0,0.0,0.0,0.0,0.0,0.0,0.0,0.0,0.0,0.0,0.0,0.0,0.0,0.0,0.0,0.0,0.0,0.0,0.0,0.0,0.0,0.0,0.0,0.0,0.0,0.0,0.0,0.0,0.0,0.0,0.0,0.0,0.0,0.0,0.0,0.0,0.0,0.0,0.0,0.0,0.0,0.0,0.0,0.0,0.0,0.0,0.0,0.0,0.0,0.0,0.0,0.0,0.0,0.0,0.0,0.0,0.0,0.0,0.0,0.0,0.0,0.0,0.0,0.0,0.0,0.0,0.0,0.0,0.0,0.0,0.0,0.0,0.0,0.0,0.0,0.0,0.0,0.0,0.0,0.0,0.0,0.0,0.0,0.0,0.0,0.0,0.0,0.0,0.0,0.0,0.0,0.0,0.0,0.0,0.0,0.0,0.0,0.0,0.0,0.0,0.0,0.0,0.0,0.0,0.0,0.0,0.0,0.0,0.0,0.0,0.0,0.0,0.0,0.0,0.0,0.0,0.0,0.0,0.0,0.0,0.0,0.0,0.0,0.0,0.0,0.0,0.0,0.0,0.0,0.0,0.0,0.0,0.0,0.0,0.0,0.0,0.0,0.0,0.0,0.0,0.0,0.0,0.0,0.0,0.0,0.0,0.0,0.0,0.0,0.0,0.0,0.0,0.0,0.0,0.1485,0.2084,0.2094,0.0,0.0,0.0,0.0,0.0,0.0,0.0,0.0,0.0,0.0,0.0,0.0,0.0,0.0,0.0,0.0,0.0,0.0,0.0,0.0,0.0,0.0,0.0,0.0,0.0,0.0,0.0,0.0,0.0,0.0,0.0,0.0,0.0,0.0,0.0,0.0,0.0,0.0,0.0,0.0,0.0,0.0,0.0,0.0,0.0,0.0,0.0,0.0,0.0,0.0,0.0,0.0,0.0,0.0,0.0,0.0,0.0,0.0,0.0,0.0,0.0,0.0,0.0,0.0,0.0,0.0,0.0,0.0,0.0,0.0,0.0,0.0,0.0,0.0,0.0,0.0,0.0,0.0,0.0,0.0,0.0,0.0,0.0,0.0,0.0,0.0,0.0,0.0,0.0,0.0,0.0,0.0,0.0,0.0,0.0,0.0,0.0,0.0,0.0,0.0,0.0,0.0,0.0,0.0,0.0,0.0,0.0,0.0,0.0,0.9608,1.5601,1.5557,0.564,0.0,0.0,0.0,0.0,0.0,0.0,0.0,0.0,0.0,0.0,0.0,0.0,0.0,0.0,0.0,0.0,0.0,0.0,0.0,0.0,0.0,0.0,0.0,0.0,0.0,0.0,0.0,0.0,0.0,0.0,0.0,0.0,0.0,0.0,0.0,0.0,0.0,0.0,0.0,0.0,0.0,0.0,0.0,0.0,0.0,0.0,0.0,0.0,0.0,0.0,0.0,0.0,0.0,0.0,0.0,0.0,0.0,0.0,0.0,0.0,0.0,0.0,0.0,0.0,0.0,0.0,0.0,0.0,0.0,0.0,0.0,0.0,0.0,0.0,0.0,0.0,0.0,0.0,0.0,0.0,0.0,0.0,0.0,0.0,0.0,0.0,0.0,0.0,0.0,0.0,0.0,0.0,0.0,0.0,0.0,0.0,0.0,0.0,0.0,0.0,0.0,0.0,0.0,0.0,0.0,0.5926,0.9806,0.9345,0.9608,0.9564,0.9548,0.3571,0.2967,0.9171,0.3226,0.0,0.0,0.0,0.0,0.0,0.6395,0.6097,0.029,0.6387,0.9319,0.906,0.2626,0.0,0.0,0.0,0.0,0.0,0.0,0.0,0.0,0.0,0.0,0.0,0.0,0.0,0.0,0.0,0.0,0.0,0.0,0.0,0.0,0.0,0.0,0.0,0.0,0.0,0.0,0.0,0.0,0.0,0.0,0.0,0.0,0.0,0.0,0.0,0.0,0.0,0.0,0.0,0.0,0.0,0.0,0.0,0.0,0.0,0.0,0.0,0.0,0.0,0.0,0.0,0.0,0.0,0.0,0.0,0.0,0.0,0.0,0.0,0.0,0.0,0.0,0.0,0.0,0.0,0.0,0.0,0.0,0.0,0.0,0.0,0.0,0.0,0.0,0.0,0.0,0.0,0.0,0.1982,0.3624,0.36,0.1693,0.0,0.0,0.2038,0.378,0.374,0.3806,0.3857,0.3866,1.369,1.95,1.8826,0.9303,0.3875,0.3877,0.3875,0.8337,1.8468,0.9129,0.3822,0.3546,0.3804,0.3793,0.3811,1.1413,0.9638,0.0292,1.05,1.492,1.4363,0.4374,0.0,0.0,0.0,0.0,0.0,0.0,0.0,0.0,0.0,0.0,0.0,0.0,0.0,0.0,0.0,0.0,0.0,0.0,0.0,0.0,0.0,0.0,0.0,0.0,0.0,0.0,0.0,0.0,0.0,0.0,0.0,0.0,0.0,0.0,0.0,0.0,0.0,0.0,0.0,0.0,0.0,0.0,0.0,0.0,0.0,0.0,0.0,0.0,0.0,0.0,0.0,0.0,0.0,0.0,0.0,0.0,0.0,0.0,0.0,0.0,0.0,0.0,0.0,0.0,0.0,1.0324,1.0103,0.9765,1.0634,1.1446,0.9981,0.0,0.0,0.0,0.0,0.0,0.0,0.0,0.8986,1.6557,1.6502,0.7249,0.0,0.0,0.9461,1.6576,1.7145,1.7006,1.7161,1.7024,1.9,1.9632,1.9353,1.785,1.7084,1.7113,1.7084,1.764,1.9071,1.7733,1.7086,1.6519,1.6803,1.7017,1.6329,0.6724,0.1461,0.0,0.1442,0.2023,0.2044,0.058,0.0,0.0,0.0,0.0,0.0,0.0,0.0,0.0,0.0,0.0,0.0,0.0,0.0,0.0,0.0,0.0,0.0,0.0,0.0,0.0,0.0,0.0,0.0,0.0,0.0,0.0,0.0,0.0,0.0,0.0,0.0,0.0,0.0,0.0,0.0,0.0,0.0,0.0,0.0,0.0,0.0,0.0,0.0,0.0,0.0,0.0,0.0,0.0,0.0,0.0,0.0,0.0,0.0,0.0,0.0,0.0,0.0,0.0,0.0,0.0,0.0,0.0,0.0,0.0,0.0,0.6143,0.7499,1.0569,1.3086,1.4065,1.3559,1.0273,0.9917,1.0465,1.0316,1.0731,1.0809,1.0941,1.5178,1.6638,0.886,0.3546,0.2661,1.012,1.571,1.9157,1.9282,1.9157,1.9093,1.9397,1.9577,1.991,1.9267,1.9397,1.9278,1.9278,1.9278,1.9256,1.9223,1.94,1.9028,1.8743,1.8897,1.8843,1.8875,1.351,1.0848,1.0823,1.05,0.6677,0.0,0.0,0.0,0.0,0.0,0.0,0.0,0.0,0.0,0.0,0.0,0.0,0.0,0.0,0.0,0.0,0.0,0.0,0.0,0.0,0.0,0.0,0.0,0.0,0.0,0.0,0.0,0.0,0.0,0.0,0.0,0.0,0.0,0.0,0.0,0.0,0.0,0.0,0.0,0.0,0.0,0.0,0.0,0.0,0.0,0.0,0.0,0.0,0.0,0.0,0.0,0.0,0.0,0.0,0.0,0.0,0.0,0.0,0.0,0.0,0.0,0.0,0.0,0.0,0.0,0.0,0.0,0.3858,0.6704,1.1725,1.4827,1.6074,1.6457,1.6961,1.7728,1.8195,1.8295,1.8451,1.8517,1.8669,1.6216,1.2206,0.6301,0.5398,0.8698,1.807,1.9356,1.9091,1.8859,1.825,1.8411,1.9104,1.9444,1.9577,1.9225,1.9408,1.9321,1.9321,1.9321,1.9321,1.9321,1.9212,1.9158,1.885,1.8668,1.8636,1.9006,1.8919,1.8875,1.8875,1.8247,1.3416,0.5174,0.489,0.487,0.4548,0.1417,0.0,0.0,0.0,0.0,0.0,0.0,0.0,0.0,0.0,0.0,0.0,0.0,0.0,0.0,0.0,0.0,0.0,0.0,0.0,0.0,0.0,0.0,0.0,0.0,0.0,0.0,0.0,0.0,0.0,0.0,0.0,0.0,0.0,0.0,0.0,0.0,0.0,0.0,0.0,0.0,0.0,0.0,0.0,0.0,0.0,0.0,0.0,0.0,0.0,0.0,0.0,0.0,0.0,0.0,0.0,0.0,0.0,0.0,0.0,0.0,0.0,0.0,0.8079,1.2174,1.51,1.6805,1.746,1.7959,1.8475,1.8688,1.8605,1.9271,1.8767,1.8843,1.9093,0.8942,0.4788,1.7365,1.8932,1.8932,1.9235,1.9212,1.8919,1.8194,1.7132,1.6968,1.8593,1.8962,1.9299,1.9353,1.916,1.9321,1.9321,1.9321,1.9321,1.9321,1.9212,1.9158,1.9158,1.8839,1.8479,1.8668,1.8973,1.9235,1.9146,1.8745,1.8325,1.7899,1.7633,1.7356,1.6464,0.4852,0.0,0.0,0.0,0.0,0.0,0.0,0.0,0.0,0.0,0.0,0.0,0.0,0.0,0.0,0.0,0.0,0.0,0.0,0.0,0.0,0.0,0.0,0.0,0.0,0.0,0.0,0.0,0.0,0.0,0.0,0.0,0.0,0.0,0.0,0.0,0.0,0.0,0.0,0.0,0.0,0.0,0.0,0.0,0.0,0.0,0.0,0.0,0.0,0.0,0.0,0.0,0.0,0.0,0.0,0.0,0.0,0.0,0.0,0.0,0.0,0.0,0.0,0.9702,1.4433,1.7188,1.7945,1.8502,1.8867,1.8892,1.9058,1.9157,1.9201,1.9125,1.9071,1.9296,1.5664,1.4331,1.8793,1.9685,1.9742,1.982,1.9433,1.8875,1.7689,1.7374,1.7395,1.7101,1.8727,1.9663,1.9299,1.9256,1.9245,1.9321,1.9397,1.9408,1.9321,1.9365,1.931,1.9158,1.9158,1.9136,1.9104,1.8796,1.8743,1.893,1.8821,1.8647,1.8451,1.8176,1.8133,1.8079,1.3996,1.2273,1.228,1.2287,0.7414,0.0,0.0,0.0,0.0,0.0,0.0,0.0,0.0,0.0,0.0,0.0,0.0,0.0,0.0,0.0,0.0,0.0,0.0,0.0,0.0,0.0,0.0,0.0,0.0,0.0,0.0,0.0,0.0,0.0,0.0,0.0,0.0,0.0,0.0,0.0,0.0,0.0,0.0,0.0,0.0,0.0,0.0,0.0,0.0,0.0,0.0,0.0,0.0,0.0,0.0,0.0,0.0,0.0,0.0,0.0,0.0,0.0,0.0,1.3093,1.6748,1.8418,1.8721,1.8981,1.9279,1.9433,1.95,1.9444,1.9201,1.9094,1.7614,1.3271,1.2336,1.3732,1.8374,1.9356,1.989,2.005,1.9433,1.8572,1.7994,1.7951,1.7668,1.705,1.8245,1.908,1.9038,1.9125,1.9212,1.9321,1.9397,1.9419,1.9397,1.9419,1.9365,1.9212,1.9212,1.9169,1.9389,1.9082,1.87,1.8843,1.8756,1.8625,1.844,1.8186,1.844,1.8649,1.8649,1.8649,1.866,1.8627,1.3695,0.6248,0.1693,0.0,0.0,0.0,0.0,0.0,0.0,0.0,0.0,0.0,0.0,0.0,0.0,0.0,0.0,0.0,0.0,0.0,0.0,0.0,0.0,0.0,0.0,0.0,0.0,0.0,0.0,0.0,0.0,0.0,0.0,0.0,0.0,0.0,0.0,0.0,0.0,0.0,0.0,0.0,0.0,0.0,0.0,0.0,0.0,0.0,0.0,0.0,0.0,0.0,0.0,0.0,0.0,0.0,0.0,0.0,0.0,1.7791,1.9092,1.9204,1.9389,1.943,1.9214,1.9203,1.9698,1.9764,1.9271,1.8915,1.4617,0.2348,0.0,0.3989,1.6367,1.8973,1.9492,1.9966,1.8925,1.8363,0.0,0.0,0.0,0.0,0.0,1.8186,1.8646,1.9082,1.9201,1.9321,1.9343,1.9397,1.982,1.9408,1.9343,1.9343,1.9321,1.9212,1.929,1.929,1.9157,1.9226,1.8925,1.8571,1.8738,1.8571,1.8549,1.8727,1.8727,1.8716,1.8705,1.8616,1.8517,1.725,0.5326,0.0557,0.0,0.0,0.0,0.0,0.0,0.0,0.0,0.0,0.0,0.0,0.0,0.0,0.0,0.0,0.0,0.0,0.0,0.0,0.0,0.0,0.0,0.0,0.0,0.0,0.0,0.0,0.0,0.0,0.0,0.0,0.0,0.0,0.0,0.0,0.0,0.0,0.0,0.0,0.0,0.0,0.0,0.0,0.0,0.0,0.0,0.0,0.0,0.0,0.0,0.0,0.0,0.0,0.0,0.0,0.0,1.884,1.9573,1.9753,1.982,1.993,1.993,1.9831,1.9522,1.936,1.8777,1.7841,1.3644,0.217,0.0,0.2947,1.2299,1.6948,1.9356,1.9954,1.9517,1.8847,1.8689,0.0,1.8507,1.9003,1.8745,0.0,0.0,1.87,1.8839,1.915,1.9549,1.9604,1.9342,1.931,1.9246,1.916,1.9365,1.9299,1.9245,1.885,1.8732,1.8875,1.8788,1.868,1.8582,1.8603,1.8549,1.8727,1.8727,1.8332,1.8169,1.7951,1.794,1.7573,1.4628,0.7812,0.0,0.0,0.0,0.0,0.0,0.0,0.0,0.0,0.0,0.0,0.0,0.0,0.0,0.0,0.0,0.0,0.0,0.0,0.0,0.0,0.0,0.0,0.0,0.0,0.0,0.0,0.0,0.0,0.0,0.0,0.0,0.0,0.0,0.0,0.0,0.0,0.0,0.0,0.0,0.0,0.0,0.0,0.0,0.0,0.0,0.0,0.0,0.0,0.0,0.0,0.0,0.0,0.0,0.0,0.0,1.9549,1.9943,2.0085,1.9886,2.0118,2.0111,1.992,1.9388,1.8696,1.791,1.6645,1.2442,0.1953,0.3323,0.7886,1.412,1.7679,1.9788,2.0022,1.9702,1.9417,1.9332,1.9354,0.0,1.9422,1.9169,1.8914,0.0,1.9158,1.8968,1.9267,1.9604,1.9941,1.9691,1.9636,1.9517,1.9354,1.9343,1.9245,1.9389,1.9136,1.8743,1.8518,1.8507,1.8734,1.8625,0.0,1.8582,1.8506,1.8397,1.8277,1.7854,1.7541,1.7758,1.7394,1.1958,0.58,0.0,0.0,0.0,0.0,0.0,0.0,0.0,0.0,0.0,0.0,0.0,0.0,0.0,0.0,0.0,0.0,0.0,0.0,0.0,0.0,0.0,0.0,0.0,0.0,0.0,0.0,0.0,0.0,0.0,0.0,0.0,0.0,0.0,0.0,0.0,0.0,0.0,0.0,0.0,0.0,0.0,0.0,0.0,0.0,0.0,0.0,0.0,0.0,0.0,0.0,0.0,0.0,0.0,0.0,0.0,2.0018,2.0006,2.0115,1.9867,1.993,1.9865,1.9909,1.8611,1.7125,1.5888,1.3846,0.9915,0.1563,0.7282,1.4611,1.8077,1.9359,1.9871,1.9908,1.9865,1.9886,2.0118,2.0085,2.003,1.931,1.9299,1.9593,1.9886,1.9484,1.9506,1.9385,1.9897,1.9886,1.9974,1.9875,1.9698,1.9191,1.9278,1.9169,1.9157,1.9356,1.8984,1.869,1.8756,1.8734,1.8647,1.8625,0.0,1.8582,1.8079,1.7972,1.7929,1.7457,1.7597,1.6642,0.6046,0.1367,0.0,0.0,0.0,0.0,0.0,0.0,0.0,0.0,0.0,0.0,0.0,0.0,0.0,0.0,0.0,0.0,0.0,0.0,0.0,0.0,0.0,0.0,0.0,0.0,0.0,0.0,0.0,0.0,0.0,0.0,0.0,0.0,0.0,0.0,0.0,0.0,0.0,0.0,0.0,0.0,0.0,0.0,0.0,0.0,0.0,0.0,0.0,0.0,0.0,0.0,0.0,0.0,0.0,0.0,0.0,2.0661,2.0571,2.0615,2.0115,2.0118,1.9708,1.9099,1.4927,1.1514,1.1122,0.6525,0.2036,0.0391,0.6772,1.3854,1.8333,1.9755,2.007,1.9973,2.0147,2.0191,2.0593,2.0515,2.0449,1.9781,1.9781,2.005,1.9963,1.993,1.9588,1.9216,1.9723,1.993,1.9528,1.9517,1.9441,1.9299,1.9,1.8989,1.9223,1.8882,1.8828,1.906,1.8875,1.8486,1.8465,1.8658,0.0,1.8473,1.843,1.8288,1.7833,1.7886,1.7844,1.7467,1.5105,0.8071,0.0,0.0,0.0,0.0,0.0,0.0,0.0,0.0,0.0,0.0,0.0,0.0,0.0,0.0,0.0,0.0,0.0,0.0,0.0,0.0,0.0,0.0,0.0,0.0,0.0,0.0,0.0,0.0,0.0,0.0,0.0,0.0,0.0,0.0,0.0,0.0,0.0,0.0,0.0,0.0,0.0,0.0,0.0,0.0,0.0,0.0,0.0,0.0,0.0,0.0,0.0,0.0,0.0,0.0,0.0,2.0758,2.0825,2.0758,2.0504,1.9985,1.9226,1.82,1.3754,0.9093,0.5596,0.2178,0.0,0.0,0.321,0.8321,1.6234,1.8873,1.9873,2.0081,2.037,2.0482,2.0802,2.0858,2.0858,2.0582,2.0484,2.0398,2.0343,2.0191,1.976,1.9653,1.9535,1.9449,1.9396,1.9321,1.9203,1.9321,1.9075,1.9043,1.9245,1.8935,1.9212,1.9158,1.8973,1.8843,1.8497,1.8658,0.0,1.8527,1.8473,1.8375,1.8256,1.8256,1.819,1.8373,1.8049,1.4322,0.8943,0.5832,0.2771,0.0,0.0,0.0,0.0,0.0,0.0,0.0,0.0,0.0,0.0,0.0,0.0,0.0,0.0,0.0,0.0,0.0,0.0,0.0,0.0,0.0,0.0,0.0,0.0,0.0,0.0,0.0,0.0,0.0,0.0,0.0,0.0,0.0,0.0,0.0,0.0,0.0,0.0,0.0,0.0,0.0,0.0,0.0,0.0,0.0,0.0,0.0,0.0,0.0,0.0,0.0,0.0,2.0658,2.0702,2.0902,2.0874,2.0448,1.9883,1.7581,1.3331,0.8019,0.1393,0.1025,0.1923,0.1996,0.2051,0.4744,1.32,1.6614,1.8297,1.8075,1.9718,2.0798,2.0902,2.08,2.0876,2.0963,2.0789,2.099,2.0957,2.1008,2.0773,1.9995,1.9599,1.9546,1.9503,1.9417,1.9593,1.9397,1.9462,1.9408,1.9223,1.9288,1.9267,1.9191,1.9356,1.893,1.8507,1.8701,0.0,0.0,1.8506,1.8484,1.8473,1.866,1.8561,1.8473,1.8473,1.8417,1.7769,1.2938,0.8145,0.3658,0.0844,0.0,0.0,0.0,0.0,0.0,0.0,0.0,0.0,0.0,0.0,0.0,0.0,0.0,0.0,0.0,0.0,0.0,0.0,0.0,0.0,0.0,0.0,0.0,0.0,0.0,0.0,0.0,0.0,0.0,0.0,0.0,0.0,0.0,0.0,0.0,0.0,0.0,0.0,0.0,0.0,0.0,0.0,0.0,0.0,0.0,0.0,0.0,0.0,0.0,0.0,2.0825,2.0789,2.0745,2.0795,2.2378,2.2439,1.7544,1.3201,0.8116,0.1353,0.4115,0.7986,0.8328,0.8423,0.8981,1.027,1.1594,1.2327,1.2175,1.7088,2.0902,2.0946,2.1288,2.1432,2.1443,2.1321,2.1189,2.0745,2.3001,2.3283,2.0162,1.9843,1.9789,1.9974,1.9974,1.9963,1.9919,1.9506,1.9452,1.9419,1.9632,1.9588,1.9267,1.9444,1.9017,1.8604,1.8497,0.0,0.0,1.8603,1.8603,1.8603,1.8593,1.8582,1.8549,1.8738,1.8716,1.8408,1.8026,1.7446,1.4893,0.3709,0.0,0.0,0.0,0.0,0.0,0.0,0.0,0.0,0.0,0.0,0.0,0.0,0.0,0.0,0.0,0.0,0.0,0.0,0.0,0.0,0.0,0.0,0.0,0.0,0.0,0.0,0.0,0.0,0.0,0.0,0.0,0.0,0.0,0.0,0.0,0.0,0.0,0.0,0.0,0.0,0.0,0.0,0.0,0.0,0.0,0.0,0.0,0.0,0.0,0.0,2.1617,2.2664,2.3936,2.3945,2.4121,2.2606,1.7333,1.2706,0.7849,0.137,0.4583,0.8637,0.8855,0.9076,0.9416,0.9454,1.0717,1.1831,1.2638,1.716,2.0591,2.1005,2.1324,2.1445,2.1631,2.1498,2.1255,2.0968,2.3404,2.4492,2.2983,2.2859,2.2105,2.0162,2.2057,2.2931,2.306,2.2705,2.2617,2.2227,2.2491,2.2454,2.2153,2.2328,2.2152,2.1939,2.1509,0.0,0.0,1.8625,1.8625,1.8625,1.8625,1.8625,1.8625,1.8571,1.8506,1.8451,1.8484,1.8473,1.7295,0.8363,0.3144,0.0,0.0,0.0,0.0,0.0,0.0,0.0,0.0,0.0,0.0,0.0,0.0,0.0,0.0,0.0,0.0,0.0,0.0,0.0,0.0,0.0,0.0,0.0,0.0,0.0,0.0,0.0,0.0,0.0,0.0,0.0,0.0,0.0,0.0,0.0,0.0,0.0,0.0,0.0,0.0,0.0,0.0,0.0,0.0,0.0,0.0,0.0,0.0,0.0,2.2921,2.4473,2.5803,2.5788,2.4972,2.2624,1.6963,1.2471,0.8171,0.3659,0.6048,0.8839,0.8801,0.9205,0.9505,0.9386,0.8702,0.9325,1.2491,1.6098,1.8749,1.9964,2.1119,2.1523,2.1356,2.1277,2.158,2.2179,2.4103,2.5323,2.5162,2.5287,2.4231,2.1675,2.3829,2.4975,2.5065,2.4927,2.4487,2.4077,2.4023,2.4311,2.4338,2.4243,2.3444,2.2539,2.2207,0.0,0.0,1.8647,1.8647,1.8625,1.8625,1.8625,1.8625,1.8625,1.856,1.8506,1.8593,1.8582,1.7963,1.3345,0.6618,0.0,0.0,0.0,0.0,0.0,0.0,0.0,0.0,0.0,0.0,0.0,0.0,0.0,0.0,0.0,0.0,0.0,0.0,0.0,0.0,0.0,0.0,0.0,0.0,0.0,0.0,0.0,0.0,0.0,0.0,0.0,0.0,0.0,0.0,0.0,0.0,0.0,0.0,0.0,0.0,0.0,0.0,0.0,0.0,0.0,0.0,0.0,0.0,0.0,2.4941,2.593,2.5762,2.5944,2.5087,2.2537,1.7016,1.2732,0.9899,0.9282,0.9264,0.9293,0.9264,0.9672,0.9809,0.9336,0.4146,0.2868,1.0528,1.3246,1.5176,1.6918,1.9743,2.1449,2.1522,2.1165,2.2102,2.5735,2.5735,2.5985,2.5806,2.5793,2.5464,2.482,2.4881,2.5043,2.5016,2.4264,2.4037,2.4037,2.4189,2.4447,2.5072,2.446,2.2462,1.9235,1.8754,0.0,0.0,1.8734,1.8723,1.8625,1.8625,1.8625,1.8625,1.8625,1.8625,1.8625,1.8625,1.8636,1.8636,1.8229,1.0036,0.0,0.0,0.0,0.0,0.0,0.0,0.0,0.0,0.0,0.0,0.0,0.0,0.0,0.0,0.0,0.0,0.0,0.0,0.0,0.0,0.0,0.0,0.0,0.0,0.0,0.0,0.0,0.0,0.0,0.0,0.0,0.0,0.0,0.0,0.0,0.0,0.0,0.0,0.0,0.0,0.0,0.0,0.0,0.0,0.0,0.0,0.0,0.0,0.0,2.4732,2.5901,2.5755,2.5304,2.4283,2.1666,1.4481,1.1431,0.9836,0.935,0.9362,0.9231,0.9351,0.9485,0.9524,0.9838,0.4259,0.3133,1.2157,1.3704,1.392,1.4215,1.6868,2.003,2.428,2.432,2.477,2.5884,2.5857,2.5817,2.5762,2.5762,2.5681,2.5464,2.5587,2.5084,2.4546,2.4305,2.4077,2.4189,2.3956,2.4243,2.4161,2.1827,2.0198,1.9356,1.8732,0.0,0.0,1.869,1.8647,1.8625,1.8625,1.8625,1.8636,1.8701,1.8636,1.8538,1.8777,1.8701,1.8538,1.839,1.601,1.185,0.7768,0.3419,0.0,0.0,0.0,0.0,0.0,0.0,0.0,0.0,0.0,0.0,0.0,0.0,0.0,0.0,0.0,0.0,0.0,0.0,0.0,0.0,0.0,0.0,0.0,0.0,0.0,0.0,0.0,0.0,0.0,0.0,0.0,0.0,0.0,0.0,0.0,0.0,0.0,0.0,0.0,0.0,0.0,0.0,0.0,0.0,0.0,0.0,2.0311,2.0696,2.001,1.964,1.8934,1.7324,1.2492,1.076,0.9888,0.9381,0.9323,0.9329,0.9259,0.9248,0.9361,0.9632,0.8154,0.9009,1.5042,1.4689,1.3739,1.4215,1.8158,2.206,2.5457,2.6061,2.5765,2.5939,2.5898,2.5898,2.5898,2.5898,2.5817,2.5957,2.6024,2.5449,2.4559,2.4305,2.4063,2.4121,2.4229,2.3316,2.2328,2.0289,1.931,1.9147,1.9115,0.0,0.0,1.8832,1.8465,1.869,1.8734,1.8701,1.8636,1.8799,1.8734,1.8603,1.8875,1.8832,1.8658,1.8788,1.8723,1.8005,1.3907,0.8308,0.2831,0.0566,0.0,0.0,0.0,0.0,0.0,0.0,0.0,0.0,0.0,0.0,0.0,0.0,0.0,0.0,0.0,0.0,0.0,0.0,0.0,0.0,0.0,0.0,0.0,0.0,0.0,0.0,0.0,0.0,0.0,0.0,0.0,0.0,0.0,0.0,0.0,0.0,0.0,0.0,0.0,0.0,0.0,0.0,0.0,0.0,0.0,1.1988,1.0841,1.0747,1.067,1.0817,1.1312,1.0778,0.0,0.9418,0.9323,0.9318,0.9351,0.928,0.9313,0.9371,1.4122,1.8167,1.828,1.5822,1.4531,1.6203,2.2702,2.6518,2.5916,2.6053,2.6061,2.5925,2.5898,2.5898,2.5898,2.5898,2.5898,2.5898,2.5806,2.5504,2.5016,2.4264,2.397,2.4121,2.4134,2.2328,1.9278,1.9299,1.9256,0.0,0.0,0.0,0.0,1.8796,1.8711,1.8518,1.8636,1.8539,1.868,1.8897,1.8897,1.8821,1.8962,1.8984,1.8962,1.8843,1.868,1.8527,1.8658,1.4382,0.8482,0.2827,0.0566,0.0,0.0,0.0,0.0,0.0,0.0,0.0,0.0,0.0,0.0,0.0,0.0,0.0,0.0,0.0,0.0,0.0,0.0,0.0,0.0,0.0,0.0,0.0,0.0,0.0,0.0,0.0,0.0,0.0,0.0,0.0,0.0,0.0,0.0,0.0,0.0,0.0,0.0,0.0,0.0,0.0,0.0,0.0,1.0106,0.0,1.1206,1.0833,1.0735,1.0651,0.0,1.0482,0.9851,0.0,0.0,0.927,0.9319,0.9345,0.9256,0.9369,1.0753,1.2979,1.606,1.6192,1.5954,1.65,2.2716,2.6711,2.6441,2.6034,2.6061,2.5925,2.5898,2.5898,2.5898,2.5898,2.5898,2.5898,2.5916,2.5614,2.5016,2.4372,2.4077,2.4121,2.4134,2.2316,1.9267,1.9299,1.9299,0.0,0.0,0.0,1.9115,1.9049,1.929,1.9223,1.8657,1.8941,1.9201,1.906,1.9028,1.8962,1.9169,1.9125,1.8984,1.9049,1.8919,1.8723,1.8767,1.7612,1.5891,1.4246,0.7095,0.0,0.0,0.0,0.0,0.0,0.0,0.0,0.0,0.0,0.0,0.0,0.0,0.0,0.0,0.0,0.0,0.0,0.0,0.0,0.0,0.0,0.0,0.0,0.0,0.0,0.0,0.0,0.0,0.0,0.0,0.0,0.0,0.0,0.0,0.0,0.0,0.0,0.0,0.0,0.0,0.0,0.0,0.0,0.9278,0.9924,1.0356,1.0156,1.0114,1.0072,1.0051,0.9794,0.0,0.0,0.0,0.0,0.933,1.0101,1.0357,0.977,1.0045,1.1393,1.4297,1.7079,1.8746,1.8753,2.3195,2.6423,2.683,2.6237,2.5819,2.5925,2.5898,2.5898,2.5898,2.5898,2.5898,2.5898,2.6012,2.571,2.5016,2.4412,2.4104,2.4121,2.4134,2.3238,2.1394,2.143,2.082,0.0,0.0,0.0,1.9223,1.9278,1.9212,1.9356,1.9115,1.9071,1.9301,1.9169,1.9125,1.9006,1.9245,1.9245,1.9136,1.9158,1.9028,1.8864,1.8745,1.8527,1.8299,1.831,1.3355,0.707,0.1424,0.0,0.0,0.0,0.0,0.0,0.0,0.0,0.0,0.0,0.0,0.0,0.0,0.0,0.0,0.0,0.0,0.0,0.0,0.0,0.0,0.0,0.0,0.0,0.0,0.0,0.0,0.0,0.0,0.0,0.0,0.0,0.0,0.0,0.0,0.0,0.0,0.0,0.0,0.0,0.0,0.0,0.9205,0.9266,0.9378,0.9692,0.9672,0.9613,0.9303,0.0,0.0,0.0,0.0,0.0,0.0,1.0693,0.0,0.0,1.0873,1.2084,1.4088,1.892,2.2228,2.2286,2.4518,2.6372,2.6617,2.6346,2.5899,2.5925,2.5898,2.5898,2.5898,2.5898,2.5898,2.5898,2.5749,2.5765,2.503,2.4425,2.4144,2.4161,2.4161,2.4161,2.4161,2.4175,2.2653,1.991,0.0,0.0,1.9632,1.9257,1.916,1.9201,1.9278,1.9201,1.9356,1.9256,1.9169,1.8995,1.9201,1.9267,1.9256,1.9158,1.9049,1.8908,1.8647,1.8495,1.8397,1.831,1.8212,1.5627,0.5455,0.1437,0.0,0.0,0.0,0.0,0.0,0.0,0.0,0.0,0.0,0.0,0.0,0.0,0.0,0.0,0.0,0.0,0.0,0.0,0.0,0.0,0.0,0.0,0.0,0.0,0.0,0.0,0.0,0.0,0.0,0.0,0.0,0.0,0.0,0.0,0.0,0.0,0.0,0.0,0.0,0.0,0.8814,0.9016,0.9738,1.1287,1.1746,1.133,0.9719,0.0,0.0,0.0,0.0,0.0,0.0,1.0228,1.1199,0.0,1.2844,1.4787,1.758,2.2474,2.5957,2.5886,2.6536,2.6823,2.6872,2.6291,2.5899,2.5925,2.5898,2.5898,2.5898,2.5898,2.5898,2.5898,2.5957,2.5982,2.5663,2.4532,2.3987,2.401,2.4189,2.4121,2.4121,2.4161,2.3849,2.3251,0.0,2.2202,2.0543,1.9753,1.9419,1.9299,1.9321,1.9299,1.9267,1.931,1.9169,1.8973,1.9017,1.9028,1.9028,1.9006,1.8919,1.8745,1.8408,1.8299,1.8288,1.8266,1.8266,1.7731,1.5861,0.781,0.0,0.0,0.0,0.0,0.0,0.0,0.0,0.0,0.0,0.0,0.0,0.0,0.0,0.0,0.0,0.0,0.0,0.0,0.0,0.0,0.0,0.0,0.0,0.0,0.0,0.0,0.0,0.0,0.0,0.0,0.0,0.0,0.0,0.0,0.0,0.0,0.0,0.0,0.0,0.0,0.8675,0.9938,1.1535,1.2357,1.179,1.0736,0.0,0.0,0.0,0.0,0.0,0.0,1.0037,1.0941,1.2491,1.5919,1.6905,1.7965,1.9495,2.2194,2.4542,2.6576,2.678,2.6685,2.6956,2.6318,2.5899,2.5925,2.5898,2.5898,2.5898,2.5898,2.5898,2.5898,2.5776,2.5834,2.5463,2.4666,2.4053,2.4229,2.4161,2.4121,2.4121,2.4134,2.4134,2.4161,0.0,2.3762,2.2978,2.0414,1.9171,1.931,1.9321,1.9321,1.9299,1.9115,1.8786,1.8839,1.8646,1.8995,1.9158,1.9082,1.8984,1.8832,1.8538,1.8451,1.8451,1.8451,1.8408,1.8419,1.8347,1.258,0.5575,0.1172,0.2661,0.4173,0.0892,0.0,0.0,0.0,0.0,0.0,0.0,0.0,0.0,0.0,0.0,0.0,0.0,0.0,0.0,0.0,0.0,0.0,0.0,0.0,0.0,0.0,0.0,0.0,0.0,0.0,0.0,0.0,0.0,0.0,0.0,0.0,0.0,0.0,0.0,0.0,0.8554,1.0358,1.2128,1.2336,0.0,0.0,0.0,0.0,0.0,0.0,0.0,0.0,1.0911,1.2737,1.5302,1.9528,2.0165,2.0608,2.1132,2.2105,2.386,2.6408,2.682,2.6698,2.6768,2.6373,2.5926,2.5966,2.5925,2.5898,2.5898,2.5898,2.5898,2.5898,2.5871,2.564,2.5179,2.4397,2.4079,2.4175,2.4134,2.4121,2.4121,2.4121,2.4121,2.4134,2.4104,2.4379,2.4488,2.1671,2.0111,1.931,1.931,1.931,1.9278,1.8962,1.8732,1.8626,1.8646,1.9017,1.9223,1.9147,1.9028,1.8886,1.8647,1.8582,1.8582,1.8603,1.8582,1.8582,1.8561,1.6586,1.2453,0.6204,0.7139,0.8684,0.5368,0.2101,0.0,0.0,0.0,0.0,0.0,0.0,0.0,0.0,0.0,0.0,0.0,0.0,0.0,0.0,0.0,0.0,0.0,0.0,0.0,0.0,0.0,0.0,0.0,0.0,0.0,0.0,0.0,0.0,0.0,0.0,0.0,0.0,0.0,0.0,0.8529,0.9109,0.9727,1.0687,0.0,0.0,0.0,0.0,0.0,0.0,0.0,0.0,0.0,1.618,1.9598,2.0604,2.1226,2.1479,2.2109,2.4626,2.6475,2.669,2.6902,2.6739,2.6905,2.61,2.5953,2.5805,2.5993,2.5898,2.5898,2.5898,2.5898,2.5898,2.5776,2.582,2.5986,2.4559,2.4026,2.4023,2.4189,2.4121,2.4121,2.4121,2.4121,2.4134,2.3996,2.397,2.4175,2.4023,2.184,1.9278,1.9278,1.9299,1.9278,1.9345,1.9038,1.8542,1.8711,1.8973,1.9006,1.929,1.9201,1.8767,1.8527,1.8451,1.8484,1.8593,1.869,1.8832,1.9093,1.8882,1.8574,1.7998,1.3831,1.1156,1.6824,0.8428,0.0,0.0,0.0,0.0,0.0,0.0,0.0,0.0,0.0,0.0,0.0,0.0,0.0,0.0,0.0,0.0,0.0,0.0,0.0,0.0,0.0,0.0,0.0,0.0,0.0,0.0,0.0,0.0,0.0,0.0,0.0,0.0,0.0,0.0,0.9145,0.9002,0.9165,1.0464,0.0,0.0,0.0,0.0,0.0,0.0,0.0,0.0,0.0,0.0,1.7342,2.0287,2.1282,2.177,2.2017,2.5198,2.7317,2.6902,2.6834,2.6712,2.6809,2.6726,2.6251,2.6006,2.5939,2.5898,2.5898,2.5898,2.5898,2.5898,2.5999,2.5751,2.5802,2.4813,2.4224,2.4037,2.4189,2.4121,2.4121,2.4121,2.4121,2.4134,2.4077,2.4037,2.4161,2.409,2.3434,2.2328,2.2353,2.1143,1.9278,1.9356,1.9104,1.8935,1.8437,1.8764,1.9201,1.9201,1.9115,1.9006,1.8919,1.8832,1.8788,1.8919,1.8984,1.9049,1.9147,1.9223,1.9267,1.9223,1.7411,1.6207,1.8552,1.525,1.0776,0.6901,0.2706,0.0,0.0,0.0,0.0,0.0,0.0,0.0,0.0,0.0,0.0,0.0,0.0,0.0,0.0,0.0,0.0,0.0,0.0,0.0,0.0,0.0,0.0,0.0,0.0,0.0,0.0,0.0,0.0,0.0,0.0,0.0,0.9351,0.8779,0.9193,0.0,0.0,0.0,0.0,0.0,0.0,0.0,0.0,0.0,0.0,0.0,0.0,0.0,2.0986,2.1894,2.3472,2.5981,2.7345,2.682,2.6766,2.696,2.6713,2.6658,2.621,2.5993,2.5939,2.5898,2.5898,2.5898,2.5898,2.5898,2.6026,2.5779,2.5477,2.4546,2.4251,2.397,2.4175,2.4121,2.4121,2.4121,2.4121,2.4134,2.413,2.4419,2.4529,2.4211,2.4171,2.4229,2.3956,2.2091,1.9278,1.9433,1.9191,1.9299,1.8531,1.8882,1.9321,1.9321,1.9256,1.9158,1.9158,1.9071,1.9006,1.9125,1.9158,1.9158,1.9158,1.9245,1.9299,1.9212,1.9169,1.9125,1.906,1.9049,1.758,1.195,0.8086,0.4804,0.0604,0.0,0.0,0.0,0.0,0.0,0.0,0.0,0.0,0.0,0.0,0.0,0.0,0.0,0.0,0.0,0.0,0.0,0.0,0.0,0.0,0.0,0.0,0.0,0.0,0.0,0.0,0.0,0.0,0.0,0.8952,0.8725,1.0004,0.0,0.0,0.0,0.0,0.0,0.0,0.0,0.0,0.0,0.0,0.0,0.0,1.9786,2.0736,2.2691,2.6342,2.673,2.6649,2.682,2.6671,2.685,2.6713,2.6224,2.5805,2.5805,2.5993,2.5898,2.5898,2.5898,2.5898,2.5898,2.5898,2.5296,2.4061,2.4707,2.4718,2.4121,2.4121,2.4121,2.4121,2.4121,2.4121,2.4134,2.413,2.4804,2.5928,2.4663,2.3987,2.4037,2.4063,2.2128,1.9288,1.931,1.931,1.9321,1.9321,1.9321,1.9321,1.9321,1.9256,1.9158,1.9158,1.9071,1.9006,1.9125,1.9158,1.9158,1.9158,1.9245,1.9299,1.918,1.9158,1.9115,1.9006,1.8984,1.7835,1.3737,1.6478,1.5337,0.2416,0.0,0.0,0.0,0.0,0.0,0.0,0.0,0.0,0.0,0.0,0.0,0.0,0.0,0.0,0.0,0.0,0.0,0.0,0.0,0.0,0.0,0.0,0.0,0.0,0.0,0.0,0.0,0.0,0.0,1.1952,1.2635,0.0,1.4223,0.0,0.0,0.0,0.0,0.0,0.0,0.0,2.3444,2.1482,0.0,0.0,2.0566,2.3181,2.5733,2.6698,2.6644,2.6891,2.6836,2.6454,2.6033,2.6224,2.6156,2.5752,2.5966,2.5925,2.5898,2.5898,2.5898,2.5898,2.5898,2.593,2.5669,2.549,2.4758,2.4144,2.397,2.4175,2.4121,2.4121,2.4121,2.4121,2.4134,2.4224,2.4886,2.59,2.5065,2.4735,2.4666,2.4256,2.359,2.2341,2.022,1.931,1.9321,1.9321,1.9321,1.9321,1.9321,1.9299,1.9267,1.9267,1.9256,1.9223,1.9267,1.9212,1.9158,1.9158,1.9115,1.9071,1.9028,1.8962,1.8886,1.8843,1.8799,1.8518,1.7499,1.8182,1.7968,1.4194,0.9635,0.5101,0.0601,0.0,0.0,0.0,0.0,0.0,0.0,0.0,0.0,0.0,0.0,0.0,0.0,0.0,0.0,0.0,0.0,0.0,0.0,0.0,0.0,0.0,0.0,0.0,0.0,0.0,0.0,1.1547,1.2808,0.0,1.5448,1.7354,1.942,2.1583,0.0,0.0,0.0,0.0,2.4898,2.2202,2.195,0.0,2.3044,2.5376,2.6658,2.6481,2.6427,2.6346,2.6278,2.6264,2.5872,2.6061,2.6034,2.6006,2.5898,2.5857,2.5803,2.6053,2.5999,2.593,2.5875,2.5982,2.5788,2.5607,2.4425,2.4171,2.3956,2.4229,2.4175,2.4121,2.4121,2.4121,2.4134,2.4473,2.4927,2.555,2.5176,2.4845,2.4514,2.413,2.4037,2.3656,2.0589,1.9354,1.9321,1.9321,1.9321,1.9321,1.9321,1.9321,1.9321,1.9321,1.9299,1.9256,1.9256,1.9169,1.9071,1.9028,1.8962,1.8908,1.8897,1.8843,1.8777,1.8734,1.868,1.869,1.8864,1.8973,1.9093,1.9278,1.5927,1.1977,0.8086,0.3294,0.0,0.0,0.0,0.0,0.0,0.0,0.0,0.0,0.0,0.0,0.0,0.0,0.0,0.0,0.0,0.0,0.0,0.0,0.0,0.0,0.0,0.0,0.0,0.0,0.0,0.9815,1.1216,1.4349,1.883,2.1794,0.0,2.5579,2.5861,2.593,2.5871,0.0,2.4894,2.1721,2.3874,2.6108,2.6859,2.6844,2.6685,2.5993,2.5966,2.5899,2.5765,2.5752,2.6006,2.5871,2.5871,2.5884,2.5884,2.5762,2.5957,2.582,2.5641,2.5816,2.5677,2.5788,2.5635,2.4886,2.4519,2.4053,2.4121,2.4256,2.3956,2.4121,2.4121,2.4121,2.4161,2.4611,2.4927,2.4989,2.4853,2.4786,2.4159,2.4132,2.4291,2.3788,2.0368,1.9397,1.9321,1.9321,1.9321,1.9321,1.9321,1.9321,1.9321,1.931,1.9245,1.9169,1.9147,1.9356,1.9246,1.9113,1.9069,1.8777,1.8777,1.8777,1.8745,1.8647,1.8625,1.8647,1.8767,1.8875,1.9006,1.9158,1.9169,1.8871,1.8605,0.8072,0.0,0.0,0.0,0.0,0.0,0.0,0.0,0.0,0.0,0.0,0.0,0.0,0.0,0.0,0.0,0.0,0.0,0.0,0.0,0.0,0.0,0.0,0.0,0.0,0.0,1.5665,1.7241,1.9289,2.1199,2.3577,2.5452,2.5765,2.5749,2.5803,2.5762,2.5985,2.5572,2.4886,2.535,2.6136,2.6566,2.6397,2.6142,2.602,2.5898,2.5776,2.5944,2.593,2.5916,2.5889,2.5999,2.5749,2.5749,2.6026,2.5667,2.5309,2.4728,2.4569,2.4542,2.4463,2.4586,2.4886,2.4318,2.4473,0.0,2.446,2.4161,2.4121,2.4121,2.4189,2.401,2.4144,2.4318,2.4212,2.4813,2.4799,2.4772,2.4859,2.4735,2.4379,2.0578,1.9321,1.9321,1.9321,1.9321,1.9321,1.9321,1.9321,1.931,1.9212,1.9245,1.9256,1.8754,1.8689,1.8646,1.8821,1.8723,1.8669,1.8658,1.8658,1.8647,1.8625,1.8625,1.8647,1.8767,1.8821,1.8875,1.9006,1.8951,1.8886,1.8636,0.7961,0.0,0.0,0.0,0.0,0.0,0.0,0.0,0.0,0.0,0.0,0.0,0.0,0.0,0.0,0.0,0.0,0.0,0.0,0.0,0.0,0.0,0.0,0.0,0.0,0.0,1.7789,2.0348,2.2039,2.3292,2.4734,2.5802,2.5982,2.5861,2.593,2.5969,2.582,2.535,2.5586,2.539,2.5789,2.6358,2.6136,2.5871,2.6026,2.5627,2.5545,2.5477,2.5464,2.5491,2.5559,2.5586,2.564,2.5776,2.5916,2.5477,2.5149,2.4854,2.4344,2.3969,2.4212,2.4372,2.5079,2.4528,2.4117,2.4433,2.4189,2.4161,2.4012,2.408,2.4161,2.4243,2.401,2.413,2.4582,2.4969,2.4996,2.4982,2.4914,2.4804,2.4077,2.0589,1.9321,1.931,1.931,1.9321,1.9321,1.9321,1.9278,1.9245,1.9245,1.9158,1.906,1.8984,1.8886,1.8497,1.8723,1.8658,1.8625,1.8625,1.8669,1.869,1.8636,1.8701,1.8777,1.8723,1.881,1.8875,1.8886,1.8832,1.8777,1.8465,1.2902,0.7948,0.4741,0.1787,0.0,0.0,0.0,0.0,0.0,0.0,0.0,0.0,0.0,0.0,0.0,0.0,0.0,0.0,0.0,0.0,0.0,0.0,0.0,0.0,0.0,0.0,1.7275,2.0871,2.3628,2.4848,2.5232,2.5732,2.5677,2.5545,2.5614,2.586,2.5573,2.5269,2.49,2.4939,2.5242,2.5765,2.5875,2.5613,2.5765,2.5423,2.5082,2.5068,2.5068,2.5122,2.4913,2.5149,2.5216,2.5762,2.5765,2.5559,2.4908,2.4948,2.4704,2.4211,2.4211,2.4433,2.4856,2.4365,2.401,2.408,2.4243,2.4161,2.4199,2.4012,2.408,2.408,2.4134,2.4229,2.4982,2.4817,2.4872,2.49,2.4982,2.4582,2.3749,2.1238,2.0255,2.0164,2.0209,1.991,1.9278,1.931,1.9245,1.9169,1.9234,1.906,1.8832,1.919,1.8788,1.8647,1.8625,1.8625,1.8625,1.8625,1.8701,1.8767,1.8647,1.8777,1.8864,1.8669,1.8777,1.8875,1.8745,1.8734,1.869,1.8315,1.8411,1.6725,1.1439,0.6485,0.2368,0.0297,0.0,0.0,0.0,0.0,0.0,0.0,0.0,0.0,0.0,0.0,0.0,0.0,0.0,0.0,0.0,0.0,0.0,0.0,0.0,0.0,1.3334,1.9049,2.4104,2.4963,2.4611,2.4412,2.4975,2.4733,2.4423,2.5003,2.5463,2.5545,2.4948,2.5125,2.4961,2.526,2.5068,2.5122,2.4961,2.4948,2.4894,2.5084,2.507,2.5084,2.5111,2.5518,2.5614,2.5001,2.5587,2.5559,2.4908,2.4948,2.4982,2.5009,2.5009,2.4787,2.4076,2.4213,2.3972,2.4227,2.408,2.4066,2.4199,2.3608,2.3621,2.4241,2.4202,2.4023,2.4365,2.4197,2.4555,2.4859,2.446,2.4077,2.4037,2.3616,2.3484,2.3405,2.3537,2.1656,1.9444,1.9256,1.9212,1.9115,1.8732,1.8973,1.9201,1.8723,1.8723,1.8745,1.8647,1.8625,1.8625,1.8625,1.8701,1.8756,1.8947,1.8647,1.8669,1.8625,1.8647,1.8636,1.8506,1.8484,1.8451,1.8332,1.8143,1.7973,1.7499,1.6677,1.2073,0.1194,0.0,0.0,0.0,0.0,0.0,0.0,0.0,0.0,0.0,0.0,0.0,0.0,0.0,0.0,0.0,0.0,0.0,0.0,0.0,0.0,1.2995,1.8112,2.2716,2.3675,2.4158,2.4229,2.4351,2.4264,2.4093,2.4541,2.4704,2.484,2.5106,2.5065,2.5065,2.4853,2.5092,2.5092,2.4975,2.4921,2.4894,2.5003,2.4948,2.4935,2.5016,2.5326,2.5367,2.4894,2.5394,2.5339,2.5111,2.5065,2.5107,2.4968,2.4202,2.3999,2.3501,2.3487,2.3822,2.4199,2.3972,2.4213,2.4076,2.3554,2.3581,2.4199,2.4039,2.4134,2.4229,2.4077,2.4379,2.4324,2.4324,2.3996,2.4202,2.4066,2.3985,2.3931,2.3608,2.2964,2.2002,2.2077,2.2014,2.1632,1.9246,1.8821,1.897,1.8701,1.8658,1.8593,1.8625,1.8625,1.8625,1.8625,1.8658,1.868,1.8636,1.8723,1.8799,1.8734,1.8669,1.8582,1.8462,1.844,1.8397,1.8266,1.831,1.8397,1.8527,1.8582,1.5132,0.6147,0.206,0.0,0.0,0.0,0.0,0.0,0.0,0.0,0.0,0.0,0.0,0.0,0.0,0.0,0.0,0.0,0.0,0.0,0.0,0.0,1.3537,1.784,2.1505,2.2399,2.3188,2.38,2.365,2.3836,2.3903,2.3944,2.3795,2.3983,2.4392,2.4708,2.4749,2.4555,2.4666,2.4625,2.4691,2.4941,2.4969,2.488,2.4813,2.4758,2.4532,2.4704,2.4718,2.4613,2.4745,2.4677,2.4786,2.4776,2.457,2.4488,2.3661,2.3193,2.3114,2.3061,2.338,2.3795,2.4117,2.4076,2.3938,2.3434,2.3487,2.3795,2.4117,2.4213,2.4012,2.4134,2.4134,2.4066,2.4189,2.4161,2.4053,2.4227,2.4117,2.3714,2.3394,2.3353,2.3897,2.398,2.3925,2.326,1.9754,1.868,1.8473,1.8357,1.8538,1.8705,1.8538,1.8571,1.8582,1.8603,1.8625,1.8625,1.8625,1.8734,1.8821,1.8767,1.8647,1.8538,1.8408,1.843,1.8386,1.8201,1.8212,1.8288,1.8386,1.8408,1.6711,1.2138,0.4662,0.0,0.0,0.0,0.0,0.0,0.0,0.0,0.0,0.0,0.0,0.0,0.0,0.0,0.0,0.0,0.0,0.0,0.0,0.0,1.4246,1.8267,2.1423,2.1573,2.228,2.32,2.2424,2.2778,2.3166,2.3307,2.3388,2.3166,2.332,2.3675,2.3934,2.3934,2.3815,2.3762,2.3921,2.4555,2.4872,2.4582,2.4264,2.3907,2.3788,2.3629,2.3849,2.4175,2.4161,2.4148,2.3862,2.3836,2.3688,2.3407,2.31,2.326,2.3253,2.3099,2.3166,2.3166,2.3925,2.4203,2.4064,2.347,2.3166,2.3193,2.3925,2.4007,2.4007,2.4021,2.409,2.4213,2.4213,2.4213,2.4213,2.4199,2.3632,2.3293,2.3273,2.3193,2.3293,2.3286,2.3286,2.2585,1.964,1.8582,1.8397,1.8133,1.8321,1.855,1.8671,1.8716,1.8738,1.8593,1.8625,1.8625,1.8625,1.8538,1.8495,1.8603,1.8538,1.8408,1.8288,1.8364,1.8321,1.7973,1.8114,1.8256,1.8266,1.8277,1.8122,1.8078,0.7279,0.0,0.0,0.0,0.0,0.0,0.0,0.0,0.0,0.0,0.0,0.0,0.0,0.0,0.0,0.0,0.0,0.0,0.0,0.0,1.2018,1.321,1.4583,1.6111,1.8073,1.9928,2.1456,2.2057,2.2656,2.2886,2.2831,2.2703,2.2938,2.3415,2.3632,2.3822,2.3646,2.3646,2.3457,2.3836,2.4474,2.427,2.397,2.3616,2.3457,2.3688,2.3675,2.3972,2.3972,2.3972,2.3675,2.3487,2.334,2.3233,2.3139,2.332,2.3225,2.3266,2.3347,2.3152,2.3497,2.351,2.3456,2.3152,2.3099,2.3307,2.3361,2.351,2.338,2.338,2.3646,2.3632,2.3822,2.4076,2.3938,2.3714,2.33,2.3072,2.2783,2.3005,2.3239,2.3347,2.3072,2.3045,2.1864,2.0204,1.8878,2.0228,2.0988,2.0864,2.11,1.97,1.8571,1.8992,1.9025,1.8734,1.8734,1.8636,1.856,1.8603,1.8582,1.8527,1.8397,1.8408,1.8266,1.7745,1.8005,1.8169,1.7951,1.819,1.844,1.8283,1.1037,0.4371,0.0293,0.0,0.0,0.0,0.0,0.0,0.0,0.0,0.0,0.0,0.0,0.0,0.0,0.0,0.0,0.0,0.0,0.0,1.0619,1.0412,1.0788,1.312,1.4594,1.6608,2.0033,2.0917,2.1489,2.2249,2.2402,2.2333,2.263,2.2846,2.294,2.3388,2.354,2.3554,2.3447,2.3822,2.3863,2.3958,2.3675,2.3608,2.3447,2.3394,2.366,2.366,2.366,0.0,2.366,2.3483,2.3347,2.3307,2.3198,2.313,2.309,2.313,2.3198,2.3307,2.3347,2.3085,2.3085,2.3085,2.3307,2.3225,2.3225,2.3347,2.3219,2.3219,2.3166,2.3099,2.3394,2.3646,2.3995,2.3313,2.3219,2.3005,2.265,2.2884,2.3158,2.3198,2.3239,2.3239,2.3185,2.183,2.052,2.1843,2.2576,2.2456,2.2478,2.0587,1.8625,1.9003,1.9025,1.8734,1.8734,1.868,1.8625,1.8625,1.8593,1.8538,1.8451,1.844,1.8288,1.7853,1.8092,1.8223,1.7984,1.8245,1.8451,1.8506,1.2737,0.6669,0.0581,0.0,0.0,0.0,0.0,0.0,0.0,0.0,0.0,0.0,0.0,0.0,0.0,0.0,0.0,0.0,0.0,0.0,0.0,0.0,0.0,1.2726,1.2881,1.368,1.8623,1.9305,1.9189,2.1313,2.195,2.2289,2.2316,2.2344,2.2574,2.3293,2.3293,2.3307,2.3605,2.366,2.3687,2.366,2.366,2.3605,2.3456,2.3307,2.3225,2.3225,2.3225,2.3225,2.3225,2.3225,2.3158,2.3307,2.3307,2.3238,2.3073,2.3211,2.3307,2.3307,2.3158,2.3225,2.3225,2.3225,2.3225,2.3225,2.3225,2.3225,2.3225,2.3225,2.3225,2.3239,2.265,2.3179,2.4143,2.3273,2.3099,2.332,2.3171,2.313,2.332,2.3171,2.3225,2.3185,2.3063,2.3197,2.3059,2.2348,2.2771,2.3285,2.3327,2.1025,1.8593,1.8625,1.8625,1.8625,1.8625,1.8625,1.8625,1.8625,1.8527,1.844,1.8451,1.8451,1.8397,1.8266,1.8343,1.843,1.843,1.843,1.844,1.8484,1.2972,0.6622,0.0576,0.0,0.0,0.0,0.0,0.0,0.0,0.0,0.0,0.0,0.0,0.0,0.0,0.0,0.0,0.0,0.0,0.0,1.0002,0.0,0.0,0.0,0.0,0.0,1.5276,1.6388,1.7378,1.9495,2.0336,2.0987,2.1842,2.2181,2.2411,2.2615,2.2805,2.2981,2.3171,2.3375,2.347,2.3361,2.3456,2.3456,2.3293,2.3239,2.3225,0.0,2.3225,2.3225,2.3225,2.3117,2.3049,2.3008,2.29,2.2818,2.2778,2.2818,2.2913,2.3307,2.3334,2.3117,2.3225,2.3225,2.3225,2.3225,2.3225,2.3225,2.3225,2.3225,2.3171,2.3117,2.2624,2.3179,2.4143,2.3273,2.3166,2.3171,2.3198,2.313,2.332,2.3171,2.3158,2.3063,2.332,2.29,2.2509,2.2293,2.2846,2.3169,2.3103,2.0874,1.8625,1.8701,1.8734,1.8734,1.8723,1.8734,1.8745,1.8745,1.8647,1.8593,1.868,1.8625,1.844,1.806,1.8027,1.806,1.806,1.806,1.8201,1.8582,1.6859,1.1609,0.087,0.0,0.0,0.0,0.0,0.0,0.0,0.0,0.0,0.0,0.0,0.0,0.0,0.0,0.0,0.0,0.0,0.0,0.0,0.0,0.0,0.0,0.0,0.0,1.4064,1.51,1.632,1.8477,1.9345,2.0051,2.1123,2.1475,2.1692,2.2004,2.2357,2.2696,2.2981,2.3198,2.332,2.3239,2.3293,2.332,2.3225,2.3225,2.3225,2.3225,2.3225,2.3198,2.313,2.3117,2.3008,2.2818,2.2509,2.2442,2.2601,2.2656,2.2764,2.3211,2.3265,2.309,2.3225,2.3225,2.3225,2.3225,2.3293,2.3266,2.3225,2.3293,2.3158,2.3252,2.2822,2.3388,2.4059,2.3691,2.3415,2.3018,2.2938,2.2871,2.3103,2.313,2.3117,2.3063,2.2873,2.2563,2.2293,2.2549,2.29,2.3334,2.3158,2.0874,1.8593,1.8658,1.9003,1.9315,1.8981,1.8788,1.8843,1.8799,1.8777,1.8777,1.8788,1.8777,1.8647,1.8332,1.8223,1.8212,1.8266,1.8223,1.831,1.8603,1.8647,1.573,0.8437,0.2918,0.0,0.0,0.0,0.0,0.0,0.0,0.0,0.0,0.0,0.0,0.0,0.0,0.0,0.0,0.0,0.0,0.0,0.0,0.0,0.0,0.0,0.0,1.4249,1.4845,1.5506,1.7609,1.8396,1.8993,1.9942,2.0173,2.0431,2.1068,2.172,2.2344,2.2886,2.3103,2.3198,2.3198,2.3198,2.3198,2.3225,2.3198,2.3198,2.3225,2.3225,2.3171,2.3049,2.3117,2.2995,2.2588,2.2389,2.2322,2.2344,2.2466,2.2601,2.2764,2.3197,2.3063,2.3198,2.3225,2.3225,2.3198,2.3072,2.332,2.3185,2.3361,2.3185,2.3425,2.3253,2.3554,2.3932,2.4059,2.3609,2.3099,2.2677,2.2611,2.3158,2.3063,2.3103,2.309,2.2429,2.2227,2.2373,2.2991,2.3114,2.3334,2.3334,2.1112,1.9147,1.9147,1.9769,2.0081,1.8892,1.9069,1.8908,1.881,1.8908,1.8962,1.8843,1.8908,1.8919,1.8788,1.8636,1.8593,1.8745,1.8636,1.856,1.8625,1.8647,1.8658,1.869,0.7902,0.059,0.0,0.0,0.0,0.0,0.0,0.0,0.0,0.0,0.0,0.0,0.0,0.0,0.0,0.0,0.0,0.0,0.0,0.0,0.0,0.0,0.0,1.2126,1.2725,1.3539,1.4706,1.5303,1.5995,1.7256,1.788,1.8179,1.807,1.9657,2.1299,2.2479,2.2886,2.3049,2.3049,2.3049,2.3103,2.3198,2.3117,2.3103,2.3225,2.3225,2.3198,2.3185,2.2981,2.2832,2.2751,2.2534,2.2384,2.2344,2.2371,2.2452,2.2601,2.2751,2.29,2.3063,2.3171,2.3158,2.3063,2.3198,2.3417,2.3763,2.3444,2.3444,2.3876,2.2884,2.265,2.2884,2.38,2.3828,2.3253,2.2951,2.3063,2.3197,2.3117,2.275,2.2576,2.29,2.267,2.2439,2.3076,2.313,2.3185,2.3198,2.265,2.2363,2.2363,2.1813,2.1236,2.0035,1.9804,1.9583,1.8777,1.8973,1.9115,1.9082,1.8941,1.8788,1.868,1.831,1.819,1.8603,1.8299,1.819,1.8582,1.8625,1.8636,1.8658,1.1705,0.5312,0.0299,0.0,0.0,0.0,0.0,0.0,0.0,0.0,0.0,0.0,0.0,0.0,0.0,0.0,0.0,0.0,0.0,0.0,1.1939,0.0,0.0,0.0,1.23,1.2929,1.4055,1.4231,1.4597,1.5954,1.632,1.6537,1.6917,1.8477,1.9888,2.0566,2.195,2.2873,2.2805,2.2846,2.2927,2.2995,2.3008,2.3063,2.3198,2.3225,2.3185,2.3117,2.3049,2.294,2.2778,2.2642,2.252,2.2452,2.2371,2.2452,2.2683,2.2751,2.29,2.3117,2.3185,2.3185,2.3117,2.3185,2.3389,2.3494,2.3063,2.2995,2.3087,2.2643,2.2426,2.2426,2.3307,2.3389,2.3198,2.313,2.3063,2.3279,2.2724,2.2724,2.2697,2.3211,2.2954,2.275,2.3185,2.3225,2.3225,2.3239,2.3239,2.3253,2.3239,2.2389,2.1512,2.0335,2.0152,1.9686,1.9157,1.9028,1.9115,1.9006,1.8973,1.8919,1.8734,1.8495,1.844,1.868,1.8451,1.8353,1.8593,1.8625,1.8636,1.8658,1.5831,1.0034,0.0596,0.0,0.0,0.0,0.0,0.0,0.0,0.0,0.0,0.0,0.0,0.0,0.0,0.0,0.0,0.0,0.0,0.0,0.0,0.0,1.2617,0.0,0.0,0.0,1.3715,1.3553,1.358,1.4706,1.4733,1.4855,1.571,1.7093,1.8057,1.8043,2.0214,2.1869,2.2059,2.233,2.2506,2.2574,2.2574,2.2723,2.3117,2.2927,2.2846,2.3008,2.3103,2.3049,2.2832,2.2764,2.2683,2.2547,2.2411,2.2479,2.2751,2.2764,2.2927,2.3185,2.3185,2.3171,2.313,2.313,2.3049,2.2886,2.2603,2.2187,2.2255,2.2389,2.2187,2.2482,2.2751,2.3224,2.3198,2.3063,2.3076,2.2858,2.2643,2.2737,2.3171,2.3238,2.3252,2.309,2.3185,2.3225,2.3225,2.3225,2.3239,2.3239,2.3225,2.2664,2.1787,2.0635,2.0501,2.007,1.9201,1.8995,1.9006,1.8843,1.8984,1.906,1.8864,1.8843,1.8843,1.8832,1.8745,1.868,1.8625,1.8625,1.8636,1.868,1.8518,1.389,0.2379,0.0606,0.0,0.0,0.0,0.0,0.0,0.0,0.0,0.0,0.0,0.0,0.0,0.0,0.0,0.0,0.0,0.0,0.0,1.3715,0.0,0.0,0.0,1.2359,1.1843,0.0,1.1938,1.221,0.0,0.0,1.2576,1.4285,1.5547,1.5425,1.7039,1.8762,2.0214,2.0987,2.1489,2.1774,2.134,2.153,2.2751,2.1842,2.176,2.294,2.29,2.2886,2.2981,2.2723,2.2574,2.2547,2.2411,2.2425,2.2588,2.271,2.2873,2.3022,2.3022,2.2954,2.3128,2.3128,2.2963,2.2425,2.2268,2.2228,2.2371,2.2228,2.2362,2.2187,2.2335,2.2846,2.3198,2.3063,2.2737,2.2465,2.2844,2.3185,2.3225,2.3185,2.3185,2.3198,2.3225,2.3225,2.3225,2.3225,2.3225,2.3225,2.3225,2.3225,2.2938,2.2075,2.1236,2.0671,1.9816,1.9248,1.8734,1.8919,1.8973,1.8984,1.8962,1.9049,1.9071,1.8973,1.8941,1.8843,1.8647,1.8625,1.8669,1.8767,1.855,1.5728,0.8728,0.3042,0.0,0.0,0.0,0.0,0.0,0.0,0.0,0.0,0.0,0.0,0.0,0.0,0.0,0.0,0.0,0.0,0.0,0.0,0.0,1.2467,0.0,1.187,0.0,0.0,0.0,0.0,0.0,0.0,0.0,1.3308,1.4204,1.396,1.5181,1.6741,1.8477,1.8952,1.94,2.0051,2.0119,2.0539,2.1543,2.1231,2.1435,2.2425,2.2669,2.2818,2.2873,2.2656,2.252,2.2425,2.2371,2.2371,2.2425,2.2574,2.2723,2.2873,2.2873,2.2832,2.2778,2.2696,2.2574,2.2188,2.2161,2.2384,2.2344,2.2411,2.2188,2.2255,2.2561,2.2723,2.267,2.3197,2.2995,2.2858,2.3198,2.3225,2.3225,2.3225,2.3225,2.3225,2.3225,2.3225,2.3225,2.3225,2.3225,2.3225,2.3225,2.3225,2.2925,2.2363,2.1499,2.0623,2.007,1.9192,1.8647,1.8745,1.8821,1.8843,1.8777,1.8875,1.8908,1.8788,1.8767,1.8767,1.8723,1.8669,1.869,1.8875,1.893,1.606,0.9608,0.3354,0.0,0.0,0.0,0.0,0.0,0.0,0.0,0.0,0.0,0.0,0.0,0.0,0.0,1.5153,0.0,0.0,0.0,0.0,0.0,0.0,0.0,0.0,0.0,0.0,0.0,0.0,0.0,0.0,0.0,0.0,1.3227,1.2969,1.3648,1.4841,1.6632,1.7175,1.7704,1.8477,1.8572,1.9074,2.0309,2.0173,2.0594,2.1923,2.2344,2.2588,2.271,2.2601,2.2479,2.2344,2.2344,2.2344,2.2344,2.2479,2.2601,2.271,2.271,2.2696,2.2656,2.2308,2.2268,2.2268,2.2161,2.2384,2.2384,2.2384,2.2384,2.2411,2.2799,2.2669,2.2267,2.2859,2.3307,2.3225,2.3225,2.3225,2.3225,2.3225,2.3225,2.3225,2.3171,2.3185,2.3198,2.3171,2.3185,2.3225,2.3225,2.3225,2.2925,2.2637,2.1787,2.0923,2.0346,1.9492,1.8914,1.8625,1.8723,1.8777,1.8723,1.8821,1.8843,1.8734,1.8723,1.8734,1.8788,1.8723,1.8767,1.9006,1.9017,1.5495,0.7217,0.2449,0.0,0.0,0.0,0.0,0.0,0.0,0.0,0.0,0.0,0.0,0.0,0.0,0.0,0.0,0.0,0.0,1.4543,0.0,0.0,0.0,0.0,1.2793,0.0,0.0,0.0,0.0,0.0,0.0,0.0,0.0,0.0,0.0,1.2223,1.282,1.4624,1.5981,1.6958,1.7419,1.6442,1.6795,1.9291,1.826,1.8749,2.153,2.1828,2.2113,2.2547,2.2547,2.2479,2.2344,2.2344,2.2344,2.2344,2.2479,2.2547,2.2561,2.2561,2.2479,2.2647,2.2493,2.2268,2.2268,2.2268,2.2268,2.2268,2.2268,2.2268,2.2268,2.2268,2.2456,2.2426,2.3008,2.3103,2.3225,2.3225,2.3225,2.3225,2.3225,2.3225,2.3185,2.3063,2.3117,2.3185,2.3049,2.3117,2.3225,2.3225,2.3225,2.3225,2.3225,2.265,2.1774,2.0923,2.0346,1.9481,1.8625,1.8723,1.8832,1.8941,1.9071,1.9104,1.8973,1.8962,1.8919,1.8799,1.8788,1.8886,1.9125,1.9071,1.3752,0.1218,0.0,0.0,0.0,0.0,0.0,0.0,0.0,0.0,0.0,0.0,0.0,0.0,0.0,0.0,0.0,0.0,1.7053,1.5493,0.0,0.0,0.0,0.0,0.0,0.0,0.0,0.0,0.0,0.0,0.0,0.0,0.0,1.221,0.0,1.1653,1.1884,1.2589,1.3865,1.4746,1.4896,1.4991,1.5642,1.7107,1.7066,1.7962,2.0227,2.0756,2.1299,2.195,2.2059,2.2099,2.2045,2.2045,2.2099,2.2181,2.2127,2.2167,2.2249,2.2154,2.2154,2.2208,2.2235,2.233,2.2689,2.2702,2.2702,2.2425,2.2228,2.2547,2.2853,2.295,2.2832,2.3022,2.3117,2.3185,2.3225,2.3225,2.3225,2.3198,2.3117,2.3076,2.3063,2.3022,2.3049,2.3103,2.313,2.3185,2.3225,2.3225,2.3225,2.3225,2.3225,2.2584,2.166,2.0911,2.0263,1.939,1.8614,1.8647,1.869,1.8734,1.8777,1.8788,1.8745,1.8799,1.8832,1.8788,1.8864,1.9006,1.9245,1.9408,1.7697,1.318,0.4924,0.0,0.0,0.0,0.0,0.0,0.0,0.0,0.0,0.0,0.0,0.0,0.0,0.0,1.8531,1.8396,0.0,1.6673,1.59,0.0,1.3756,0.0,0.0,0.0,0.0,0.0,0.0,0.0,0.0,0.0,0.0,1.2047,0.0,1.1328,1.1423,1.1531,1.2535,1.3268,1.3376,1.3634,1.434,1.5655,1.5886,1.6849,1.8898,1.9834,2.058,2.1177,2.1638,2.1882,2.1882,2.1882,2.1937,2.2018,2.1991,2.195,2.195,2.195,2.195,2.1964,2.2127,2.2538,2.262,2.2689,2.2702,2.2425,2.2228,2.2588,2.323,2.3087,2.3252,2.3103,2.3485,2.3225,2.3239,2.3293,2.328,2.3185,2.3049,2.3008,2.2995,2.294,2.2968,2.3022,2.3117,2.3185,2.3225,2.3225,2.3225,2.3225,2.3225,2.2817,2.218,2.1399,2.049,1.9596,1.9114,1.8593,1.8625,1.8625,1.8625,1.8625,1.8625,1.869,1.8777,1.8908,1.8984,1.9115,1.931,1.9517,1.9658,1.968,1.1735,0.4979,0.0314,0.0,0.0,0.0,0.0,0.0,0.0,0.0,0.0,0.0,0.0,0.0]}]]